GFSFLT1_con_3kmhel_000.txt.gz
Helicity
48 43 55 64 40 14 9 0 -3 -11 -16 -16 -20 -26 -20 4 10 2 5 15 -22 -7 20 16 11 21 24 42 56 75 71 57 43
22 27 54 54 23 4 4 0 -2 -5 -12 -18 -20 -19 -10 20 33 20 9 8 2 -19 -12 4 0 6 8 17 28 35 47 42 31
1 10 21 7 -10 -7 -10 -5 -6 -1 -3 -4 -6 -2 1 18 23 19 19 -6 -15 -26 -27 -27 -3 -3 -11 -8 0 7 15 19 18
-6 5 1 -6 -6 -7 -6 -14 -16 -14 -14 -7 -4 8 9 28 43 37 47 0 -31 -25 -18 -17 -7 3 7 3 -3 -9 0 3 17
-6 5 -2 0 3 -5 -12 -14 -23 -25 -21 -17 -15 -8 1 39 63 81 82 15 -1 6 7 5 2 3 8 9 11 6 -3 -2 2
5 11 9 23 11 -4 -8 -8 -3 8 18 13 9 16 60 60 79 107 82 53 50 45 27 29 18 23 23 27 18 13 16 11 7
33 39 39 26 21 15 13 12 17 23 56 51 26 49 56 74 84 104 62 62 58 49 41 42 44 44 61 64 41 20 34 22 20
48 47 36 37 34 34 28 27 27 21 30 33 27 25 27 50 68 70 25 16 27 31 35 32 28 20 26 24 27 35 22 29 34
59 59 50 54 48 50 50 70 93 92 63 46 34 25 34 43 54 49 44 43 60 63 59 56 64 53 40 24 17 13 13 17 30
88 98 110 98 96 110 117 103 81 74 60 44 41 44 55 67 74 72 57 63 91 106 128 120 105 65 44 39 41 55 52 46 48
173 169 159 134 119 120 100 91 81 72 52 54 63 57 52 59 64 66 81 126 157 190 201 199 199 209 211 152 117 96 89 87 81
197 169 165 135 122 121 98 99 93 91 85 74 61 50 64 78 100 121 127 138 157 192 209 221 252 222 227 235 183 198 169 157 164
185 166 150 126 120 107 103 100 111 109 71 45 47 64 83 105 126 124 132 134 113 134 168 198 196 197 195 199 198 182 164 113 130
175 150 128 120 112 113 108 111 83 54 52 52 53 68 87 81 120 105 123 96 87 102 111 116 112 139 163 163 162 145 141 129 124
139 123 111 92 87 94 83 62 60 43 40 42 74 70 85 81 122 87 136 67 94 86 59 26 57 109 157 164 177 189 178 204 199
120 93 86 74 64 31 22 25 46 51 39 25 53 66 84 125 80 83 83 90 124 47 80 79 90 66 123 188 217 229 266 217 217
102 89 71 62 41 49 48 40 32 30 31 7 9 40 63 105 59 69 57 89 39 85 71 93 88 92 92 109 160 199 209 241 180
92 72 50 44 34 34 25 36 37 31 36 65 44 35 58 50 42 37 62 48 84 70 88 94 105 101 98 116 135 178 255 248 224
76 57 41 34 21 33 26 42 41 45 57 50 106 104 117 86 71 94 47 86 73 97 127 138 123 113 124 134 175 217 225 216 220
65 46 32 28 26 29 49 71 92 70 72 78 79 91 114 117 152 119 124 104 109 137 163 156 150 146 137 164 166 186 182 196 189

GFSFLT1_con_3kmhel_003.txt.gz
Helicity
12 9 65 58 43 26 17 16 11 10 4 -3 -3 4 5 19 27 24 17 22 6 8 -4 10 11 11 4 7 5 11 29 24 25
9 4 33 49 22 17 16 16 16 16 11 7 1 9 10 38 51 37 26 26 6 1 4 -0 -2 -5 -3 -2 3 -0 6 11 6
-6 17 29 7 -6 -12 -9 -9 -12 -14 -13 -8 -12 -9 6 26 40 44 47 15 -6 -8 -6 -2 -10 3 4 1 -1 -6 5 2 4
-19 -2 6 -6 -9 -5 -8 -14 -17 -16 -16 -12 -11 -0 9 28 54 59 82 43 17 6 -1 -2 -6 -10 2 12 11 9 3 -7 1
-16 -7 -11 -9 -8 -8 -12 -9 -6 -2 2 2 3 11 13 36 48 68 96 60 56 51 33 25 17 11 12 16 15 21 12 13 -0
4 12 3 -1 2 -2 -3 -3 1 7 14 16 18 17 33 34 55 65 54 41 43 48 45 42 27 25 25 31 36 19 13 11 26
27 28 21 22 21 15 18 15 26 35 34 35 37 35 29 31 44 56 46 55 60 64 60 34 39 32 29 26 22 13 17 12 13
61 58 62 62 49 52 42 46 56 71 63 53 41 35 37 36 41 50 48 54 63 74 82 99 103 85 67 50 36 26 19 14 20
74 75 82 81 67 65 74 72 70 63 54 48 50 51 49 50 57 70 85 91 97 99 100 96 126 123 93 63 48 47 47 46 49
101 109 111 113 100 99 96 83 65 50 50 59 55 61 69 76 76 80 115 132 159 172 170 171 214 223 213 229 176 158 180 165 151
128 140 126 111 102 92 74 61 53 46 39 54 64 57 57 70 98 111 144 207 230 224 226 225 231 221 214 226 266 273 239 209 185
145 123 113 111 101 84 74 74 70 72 79 62 48 63 93 121 141 153 171 185 215 223 233 225 222 216 235 206 213 226 240 218 192
139 135 126 100 96 83 76 71 75 69 34 40 71 72 96 141 177 163 165 138 142 159 207 198 196 198 211 204 190 165 150 150 176
143 123 110 102 96 93 75 58 39 21 41 54 80 86 100 131 116 147 136 118 118 132 168 165 172 181 181 184 173 175 178 201 194
139 128 118 96 79 73 56 46 39 25 23 41 76 77 95 113 129 113 103 100 102 125 106 90 123 167 170 200 213 213 214 203 228
139 108 94 69 55 33 35 31 54 39 36 21 56 73 100 114 140 57 92 65 110 98 71 104 117 113 161 189 218 221 211 252 234
119 88 73 68 49 56 51 45 32 30 31 9 21 53 68 119 37 99 89 91 60 48 74 93 124 135 130 144 199 228 213 275 236
109 90 63 49 37 40 34 32 34 31 38 55 38 50 78 67 42 76 97 55 51 58 78 96 133 149 145 169 189 219 290 302 274
110 84 51 36 25 40 29 37 27 29 46 55 105 90 99 105 88 78 74 39 50 49 80 102 128 131 151 165 201 243 316 332 337
104 76 56 46 32 32 50 56 70 64 75 79 81 86 96 91 132 106 68 45 50 59 75 111 126 141 155 173 196 263 291 308 262

GFSFLT1_con_3kmhel_006.txt.gz
Helicity
10 5 50 47 33 21 19 23 24 28 23 18 10 13 21 34 45 40 36 42 22 16 21 16 22 18 18 19 18 12 8 10 25
3 8 32 27 15 6 9 10 12 15 13 8 2 -1 18 32 39 39 38 36 13 12 9 7 4 13 14 10 11 8 5 -1 7
-20 17 24 21 4 -1 -3 -2 -2 -4 -3 3 5 16 18 32 44 43 52 32 8 5 0 -1 -1 -7 7 14 13 8 1 -4 7
-32 -6 19 2 -6 -14 -16 -16 -6 2 8 14 16 24 29 37 49 58 75 51 29 22 20 14 14 10 -2 17 12 16 11 9 8
-30 -2 1 -1 0 -4 0 5 3 4 11 14 21 25 25 26 33 46 64 43 39 28 31 27 22 22 10 9 17 16 25 19 6
-12 -2 8 11 15 18 16 12 30 38 46 49 54 48 33 32 37 44 37 47 50 58 61 46 23 12 11 9 31 26 16 15 9
11 21 21 31 40 32 44 57 65 54 43 49 56 36 42 44 49 60 73 74 66 66 74 75 86 81 67 54 54 31 22 16 19
52 53 53 55 63 64 82 82 76 59 44 49 43 43 47 43 47 55 87 89 81 76 69 83 105 142 108 70 55 39 54 38 34
59 71 71 90 94 109 89 76 72 62 49 50 53 48 46 52 59 83 133 137 133 116 109 161 194 200 187 196 214 209 171 144 126
80 102 110 110 100 95 82 74 71 61 56 53 58 69 74 86 92 106 167 192 187 211 248 223 202 186 205 271 251 233 232 197 173
117 144 127 118 98 81 73 59 57 44 35 52 65 67 66 92 111 130 153 209 221 231 225 228 203 231 228 214 216 207 199 191 181
142 140 125 106 91 72 61 57 51 55 61 52 50 66 85 141 145 156 160 173 206 225 218 211 209 197 195 203 195 176 162 165 172
151 128 123 97 83 58 50 50 47 45 34 51 65 58 95 147 160 156 147 148 140 168 200 201 195 189 191 193 190 181 175 179 180
148 137 113 93 77 68 54 46 21 14 38 68 81 64 91 152 159 150 138 135 108 99 145 162 144 143 139 148 164 172 159 149 133
147 128 107 82 67 62 47 39 23 3 27 43 79 68 94 130 146 145 121 124 85 81 82 64 75 122 126 143 162 161 158 149 157
134 108 88 67 34 6 16 11 37 14 26 15 70 73 85 96 124 115 69 109 76 52 58 49 58 86 110 140 169 171 167 156 222
134 109 77 38 7 29 32 33 11 3 -5 -11 -6 40 72 142 91 92 113 80 80 68 79 81 97 103 108 114 152 163 165 191 222
136 102 61 45 21 8 8 10 20 14 5 20 -1 8 45 65 88 130 106 86 71 42 43 53 63 84 99 112 128 141 150 192 212
127 94 77 53 16 25 13 16 9 4 20 23 67 74 89 66 67 91 105 63 54 37 53 33 64 73 99 102 121 133 144 181 215
123 112 90 64 38 33 41 41 43 28 30 37 53 84 110 133 162 145 108 59 38 31 40 71 16 53 86 113 121 120 148 161 193

GFSFLT1_con_3kmhel_009.txt.gz
Helicity
4 21 45 43 38 33 37 35 41 43 39 37 34 39 41 33 44 47 39 31 26 12 8 8 16 18 19 27 27 26 36 25 24
-24 20 44 33 19 7 12 12 16 16 17 18 23 25 26 29 34 37 36 29 21 13 10 6 4 -6 16 9 14 18 17 15 17
-17 38 26 21 4 -7 -1 -4 1 7 14 18 24 30 29 30 31 37 41 34 27 13 16 13 7 -1 -7 -7 13 18 10 17 12
-21 -1 10 1 -7 -8 -6 -0 6 17 21 26 32 36 40 30 33 34 40 40 28 28 17 6 8 6 6 1 3 15 19 18 17
-9 8 11 7 5 7 16 17 30 49 53 51 51 46 43 43 34 40 43 29 23 30 41 40 26 14 11 14 -0 9 19 10 24
-0 11 23 24 26 27 38 50 67 68 70 70 58 44 39 43 47 47 59 54 48 50 51 58 57 63 47 30 16 17 15 19 21
24 36 43 40 49 64 85 88 77 62 47 54 59 46 51 52 53 59 77 71 66 63 64 70 79 92 69 43 38 36 36 26 20
53 51 60 59 82 79 79 76 68 70 58 54 54 53 50 45 49 76 99 104 99 81 82 123 183 165 144 151 166 157 114 75 65
77 84 96 95 92 92 94 75 65 59 56 55 58 61 54 61 70 94 148 130 115 201 220 205 188 156 213 246 180 202 184 160 141
102 121 119 104 97 95 85 75 66 64 62 65 66 73 62 66 75 94 161 192 233 231 233 199 172 227 199 188 191 184 186 177 164
140 144 134 112 101 87 81 72 58 54 54 63 66 59 53 78 93 103 128 188 209 204 196 194 197 179 172 189 178 157 161 156 153
148 148 133 114 99 85 72 56 52 58 56 59 53 61 76 99 126 127 136 142 194 194 194 190 170 161 165 162 160 157 141 162 176
161 143 129 101 88 67 56 60 48 47 47 52 56 54 73 120 141 135 138 140 138 152 188 185 167 159 150 135 138 149 134 123 126
157 143 114 90 78 72 56 49 35 39 51 50 45 51 81 136 145 161 148 147 154 139 140 142 140 143 121 112 117 127 127 119 118
156 136 109 82 80 70 48 43 24 12 33 38 42 63 76 105 129 139 113 135 143 122 97 92 81 100 90 84 93 104 104 94 90
155 129 102 87 79 58 37 3 18 25 29 31 59 58 74 86 86 87 127 133 132 89 81 80 79 76 93 88 89 107 94 94 93
149 113 90 75 52 39 37 25 -4 -9 -3 -15 -26 31 46 80 65 94 121 120 127 112 103 103 98 95 92 94 112 118 130 134 141
145 119 97 78 48 35 28 13 8 7 -4 11 -16 -13 30 65 67 92 119 113 91 74 59 47 51 58 63 77 97 115 127 119 124
149 127 104 81 57 41 16 -1 -3 -15 20 -4 25 19 31 3 4 37 89 83 81 40 21 29 8 21 34 58 81 114 142 133 132
146 126 107 98 73 53 32 18 15 6 -1 9 19 42 57 76 71 80 85 71 23 11 -1 -11 -4 10 30 54 69 117 116 120 158

GFSFLT1_con_3kmhel_012.txt.gz
Helicity
2 19 48 43 31 27 31 28 38 37 43 39 43 45 57 34 40 38 38 25 48 30 27 17 12 21 20 21 30 30 27 34 31
-25 8 38 25 15 12 19 30 27 21 26 23 31 33 33 25 28 28 29 28 34 25 21 12 9 3 -10 11 8 9 14 16 19
-14 32 12 5 5 10 16 18 14 21 27 33 42 45 41 20 32 33 29 52 27 22 13 8 10 6 -1 -6 -8 6 11 7 7
4 15 -5 -13 0 10 17 15 18 35 43 49 50 46 37 22 45 32 35 70 27 21 28 23 17 8 4 12 10 3 1 6 21
10 6 18 15 16 25 32 48 48 60 64 64 51 31 4 45 37 40 59 38 27 28 43 53 50 43 37 40 26 7 0 2 14
0 38 27 29 43 47 60 66 60 40 48 49 37 1 40 39 48 56 77 51 48 50 56 66 68 66 58 49 32 29 28 28 19
35 45 49 50 58 74 71 72 46 30 43 40 29 49 48 54 55 72 80 71 72 70 78 101 140 132 118 117 121 106 80 69 63
48 51 46 44 57 51 46 57 62 60 54 46 49 50 44 49 53 98 100 102 94 114 183 199 160 146 200 172 141 140 136 134 120
80 79 84 81 79 66 71 66 67 61 52 45 43 43 44 56 64 89 110 153 176 201 196 146 181 201 176 171 158 144 151 151 153
128 119 109 89 79 73 70 69 70 65 53 43 42 49 49 46 57 88 154 175 186 182 170 186 174 168 173 174 153 144 146 153 151
147 146 127 97 86 77 73 70 59 50 42 41 45 47 44 56 66 85 109 170 170 168 163 161 152 156 152 139 127 137 135 148 165
157 148 128 111 84 73 64 50 40 39 39 41 37 39 46 57 80 95 103 107 151 163 162 155 146 146 138 127 119 125 126 121 120
169 135 127 108 89 65 52 44 38 36 37 36 38 40 48 77 100 114 120 125 116 111 153 153 136 131 123 120 117 120 124 116 106
162 135 125 100 78 62 47 42 42 39 40 35 35 40 53 79 102 119 118 115 115 115 112 119 97 113 108 120 114 118 126 110 105
156 143 122 85 62 54 37 38 34 30 37 27 34 51 58 80 93 103 93 105 105 111 110 92 81 63 83 96 104 103 103 91 92
156 137 112 80 73 56 42 26 22 24 37 33 40 58 68 66 73 91 75 116 104 100 95 91 80 87 95 95 111 110 102 103 95
154 125 102 85 62 54 43 26 12 19 28 24 35 65 62 86 48 108 111 95 130 107 111 107 103 98 103 110 104 126 144 141 131
153 127 103 79 61 44 35 31 27 16 24 36 22 10 63 83 71 75 94 113 108 101 83 70 63 66 72 70 91 120 121 144 152
151 123 96 83 61 44 37 32 25 5 21 5 34 38 55 42 41 44 24 102 69 69 69 60 58 62 70 82 80 104 146 143 133
145 116 103 91 71 59 42 27 26 23 22 36 41 40 42 40 50 55 65 75 64 49 42 22 11 29 39 38 41 118 83 89 109

GFSFLT1_con_3kmhel_015.txt.gz
Helicity
14 28 44 40 32 30 28 27 29 32 30 27 29 31 28 13 23 36 41 20 62 45 36 24 22 14 22 22 18 21 24 24 31
-8 19 33 22 15 12 15 15 15 18 17 20 29 25 13 2 9 31 42 68 55 37 31 17 16 17 9 -4 2 10 4 10 13
9 31 22 12 7 9 10 11 12 18 32 40 34 27 17 10 15 46 31 68 44 29 28 32 28 23 8 3 5 4 0 5 0
38 32 19 9 7 13 16 27 45 50 50 47 38 22 4 9 51 28 55 70 50 36 40 54 58 48 45 40 38 6 5 -4 -6
30 30 31 22 26 30 41 42 45 46 46 44 32 11 -16 21 29 43 71 68 56 53 63 68 60 58 63 50 37 38 45 26 9
13 66 49 47 41 44 45 43 31 17 30 34 19 6 51 47 58 63 88 69 59 61 68 76 83 109 90 107 113 101 87 83 75
65 64 52 54 53 46 39 21 4 10 40 41 18 44 46 43 54 100 104 86 87 94 156 171 130 143 160 109 110 113 120 117 116
49 54 41 45 26 20 4 18 49 42 47 51 47 39 36 44 68 141 116 92 116 193 184 142 197 163 138 128 110 109 113 117 127
83 69 106 105 63 59 61 57 45 35 43 49 49 51 46 57 78 133 133 143 183 173 148 168 146 146 152 136 122 120 126 140 149
103 154 120 105 101 87 68 60 49 41 44 44 47 52 55 57 70 104 144 150 154 152 154 133 133 138 135 115 110 119 117 119 126
173 143 139 134 122 98 78 66 50 41 40 38 47 53 54 55 63 100 93 125 134 134 134 124 121 123 123 111 96 94 105 105 108
146 150 153 138 124 100 80 57 38 37 40 43 50 50 51 46 59 80 85 70 101 112 123 117 116 120 115 103 93 87 92 102 103
146 160 154 132 116 94 81 60 38 39 44 43 46 43 44 57 79 92 91 103 93 84 104 103 99 115 120 120 116 108 112 114 116
177 169 150 128 125 99 75 60 52 42 38 32 40 52 40 61 74 84 80 93 94 94 95 89 69 97 109 119 118 118 122 122 123
160 161 156 137 111 85 65 57 42 35 36 28 40 54 53 76 67 80 73 93 88 100 89 86 92 79 86 96 105 123 122 123 126
179 168 158 134 110 83 64 43 36 36 39 22 47 46 66 66 69 90 90 129 87 84 113 98 88 107 105 107 118 109 127 140 128
197 156 156 126 99 80 63 43 13 23 23 12 2 55 54 47 87 82 103 99 119 117 111 103 107 115 104 117 105 133 147 146 158
220 158 142 125 97 77 60 37 33 22 25 26 23 31 84 89 87 79 114 90 125 108 101 96 105 104 98 99 122 112 114 129 145
222 162 144 121 90 74 50 39 30 11 26 0 44 61 95 88 91 113 93 113 103 92 101 104 86 77 90 93 90 102 121 125 118
219 168 148 120 93 77 57 41 37 29 27 38 48 53 56 56 87 89 86 112 102 98 86 62 68 48 67 99 72 107 83 66 68

GFSFLT1_con_3kmhel_018.txt.gz
Helicity
16 36 37 29 24 21 22 25 24 24 18 14 17 18 11 -2 7 13 14 52 54 39 26 21 21 17 12 14 5 13 14 14 14
2 37 26 18 12 13 13 13 13 9 4 15 13 9 1 -2 10 22 63 45 52 36 27 28 22 18 19 15 3 -3 5 -2 2
7 20 12 8 4 4 5 2 2 13 19 18 15 10 5 7 27 55 65 74 52 37 38 54 60 72 69 63 36 5 1 -3 2
41 30 17 14 11 8 17 17 15 19 20 21 17 11 6 43 36 94 47 61 55 46 50 53 62 69 65 49 43 30 45 14 3
39 47 35 25 20 18 19 17 17 12 10 18 16 9 22 36 68 61 60 79 62 57 60 73 83 96 112 118 119 119 111 96 80
39 59 44 42 33 33 24 13 -2 4 4 3 13 41 46 62 78 67 95 85 73 69 96 120 117 141 138 120 111 124 136 130 127
79 68 58 48 48 38 21 9 14 13 16 18 40 40 51 60 87 84 99 81 87 183 161 175 172 143 132 120 96 96 107 119 134
78 65 54 45 31 33 29 15 39 34 35 37 45 54 55 69 95 114 127 148 170 132 167 144 128 131 135 107 95 90 107 123 136
64 69 61 40 50 79 89 77 53 53 62 51 46 59 69 87 96 117 145 155 147 145 123 110 113 111 106 91 91 88 88 99 106
81 149 169 134 143 138 118 103 83 69 56 52 50 58 68 103 85 81 131 131 125 120 108 102 101 95 93 85 84 80 81 89 94
215 233 172 167 136 145 131 108 85 73 61 45 48 62 68 83 105 64 74 101 98 97 95 99 96 92 93 87 81 77 79 88 97
214 174 182 155 147 154 151 124 90 84 62 57 50 61 64 65 91 69 52 61 71 75 83 86 85 87 93 91 89 86 86 91 99
214 170 187 161 166 148 151 127 99 80 69 53 49 61 60 63 108 121 107 72 62 71 79 79 83 83 93 96 98 97 102 100 104
199 205 208 176 190 171 133 121 86 68 57 41 38 54 49 57 93 94 90 87 96 81 85 89 92 85 84 98 107 113 115 112 115
215 227 226 213 184 151 130 102 80 62 47 17 15 48 47 91 87 94 88 106 92 82 79 78 78 86 97 93 94 107 112 124 133
241 247 230 206 195 156 114 86 86 74 51 23 20 24 49 70 61 87 119 114 111 109 104 81 62 66 97 87 87 98 111 122 124
299 286 252 234 207 165 121 97 60 41 39 17 6 24 41 58 49 109 123 111 119 123 98 79 69 92 85 74 107 129 121 118 136
326 320 261 225 184 149 110 88 68 36 17 29 9 27 30 46 104 96 131 116 127 104 83 75 93 109 82 89 105 101 83 84 96
345 344 291 221 169 138 99 77 55 42 30 20 32 41 64 69 83 128 126 123 136 105 91 86 99 93 96 91 106 84 73 79 85
371 352 294 217 165 131 104 78 70 52 40 37 41 50 59 70 108 99 102 88 84 99 99 92 91 84 98 110 119 88 101 91 77

GFSFLT1_con_3kmhel_021.txt.gz
Helicity
21 21 16 13 13 12 14 12 6 7 9 14 17 13 1 2 23 12 33 23 42 38 37 23 16 14 8 6 11 0 3 9 5
-3 4 4 3 2 3 -2 2 0 3 9 12 13 9 8 21 53 63 66 48 53 36 30 34 53 60 36 26 11 -1 -2 1 3
6 -1 -4 -3 -2 -3 -1 0 3 13 11 12 8 7 21 38 63 65 71 58 48 38 28 50 56 62 62 51 42 50 22 6 6
20 12 4 4 4 9 20 12 5 5 7 7 10 17 40 55 58 72 59 61 57 53 56 62 67 92 119 134 122 111 87 75 67
25 16 11 7 15 16 17 10 4 4 4 14 37 47 88 70 69 61 63 76 69 68 76 73 110 123 118 132 137 139 143 134 144
47 28 25 17 16 19 14 9 14 8 4 17 47 60 64 65 68 59 69 74 86 135 122 144 154 138 134 113 108 117 123 131 134
68 52 42 28 29 23 18 22 29 34 30 34 66 55 83 70 75 68 66 66 152 142 162 143 114 122 103 89 75 82 101 118 131
85 72 53 38 38 33 42 40 42 56 58 53 60 70 84 82 83 91 135 163 116 131 104 112 113 93 81 80 75 80 86 96 112
90 80 68 58 44 62 64 61 79 80 71 69 70 72 91 80 84 107 139 151 154 117 98 99 94 86 73 69 63 65 75 78 86
116 108 90 91 94 109 111 103 99 96 86 84 74 75 99 80 77 76 121 123 125 112 98 95 98 93 83 76 75 66 65 80 87
151 169 173 164 171 145 126 108 100 104 93 102 79 77 92 69 74 70 76 98 100 101 103 100 96 93 87 80 78 75 75 75 79
212 248 217 192 184 178 163 143 120 124 97 97 92 71 77 95 77 74 72 81 91 94 98 100 91 88 86 83 80 77 83 81 86
209 241 213 212 192 169 179 157 144 115 97 77 68 66 67 102 90 65 64 53 57 73 80 93 93 93 87 88 84 85 86 91 101
236 248 234 235 214 197 186 177 129 113 92 67 58 46 61 69 89 84 68 59 59 51 88 99 98 97 92 96 93 94 99 107 119
287 274 245 240 249 231 201 169 150 104 87 59 52 24 42 47 73 80 79 80 85 77 85 69 61 64 67 84 90 90 91 115 120
341 284 265 228 241 221 190 167 147 137 95 69 62 35 34 30 38 66 94 108 90 84 65 48 40 42 60 67 69 83 111 111 110
347 302 257 232 267 238 197 157 134 112 107 74 62 67 41 32 54 81 111 122 118 103 89 61 43 35 46 48 65 86 100 111 96
356 331 297 235 253 239 192 150 126 104 85 79 51 68 47 43 57 110 159 160 153 130 102 68 50 52 64 73 78 78 86 80 73
401 351 334 274 281 247 185 139 113 92 77 63 66 60 55 53 59 91 127 138 143 97 72 80 87 82 94 84 73 70 70 61 66
431 368 358 303 294 255 188 147 122 91 78 65 59 72 75 92 105 90 111 124 100 105 107 87 110 120 116 93 80 75 79 84 84

GFSFLT1_con_3kmhel_024.txt.gz
Helicity
10 9 4 -3 -10 -11 -8 -5 3 6 8 12 18 18 30 22 -4 16 9 18 32 29 31 24 14 13 9 5 4 -0 3 6 7
-4 -8 -11 -16 -22 -24 -21 -11 -4 -0 10 17 23 31 49 44 49 51 44 21 35 25 28 49 69 66 50 38 24 11 3 5 4
-8 -10 -16 -20 -20 -18 -9 -3 4 11 14 18 33 45 68 54 68 66 59 44 38 35 43 52 53 59 65 54 63 42 51 37 3
-3 -7 -13 -15 -11 -12 -2 12 11 10 16 29 38 51 58 66 63 63 63 54 54 52 56 59 79 108 114 130 145 141 133 115 120
23 7 -3 -6 -4 6 8 12 17 18 28 47 55 77 89 81 79 67 60 67 73 71 68 92 121 135 141 126 134 131 139 137 134
58 35 18 12 10 9 15 19 22 19 25 49 76 77 62 84 72 59 61 74 122 124 146 163 156 166 127 109 118 125 134 136 147
52 46 50 41 36 28 26 32 34 43 44 49 83 71 77 86 84 68 50 138 142 161 157 139 134 122 88 85 91 95 98 108 121
63 60 53 56 65 67 65 72 58 54 52 60 78 85 91 94 100 110 145 161 124 142 122 109 110 89 81 78 80 81 85 88 102
77 78 64 76 77 86 84 90 91 90 74 73 88 84 84 94 102 116 152 179 170 98 89 96 97 91 86 85 80 73 79 84 91
101 92 81 91 94 95 125 127 113 109 96 90 98 90 91 97 97 96 142 138 128 111 100 93 91 86 82 84 81 77 76 83 86
142 123 114 108 115 120 134 131 127 123 107 109 106 92 80 84 96 92 99 117 113 103 97 88 88 89 84 84 81 81 83 81 83
144 147 163 154 144 170 170 171 150 142 118 119 109 95 87 80 86 81 88 99 106 97 94 91 92 97 92 94 89 88 93 95 97
195 224 220 182 184 191 185 173 179 158 138 111 99 92 88 82 74 69 61 63 75 84 90 96 101 99 98 101 91 80 89 91 104
238 239 239 227 231 215 186 189 174 168 143 114 99 79 73 72 66 54 54 53 61 70 80 89 94 97 96 97 94 87 87 81 97
290 283 280 252 250 223 213 217 222 170 137 126 114 93 68 63 57 50 52 55 73 68 73 73 76 86 82 89 91 86 85 94 92
348 307 298 264 234 196 214 238 208 202 147 145 137 106 84 70 65 68 81 94 96 99 94 87 70 55 55 63 75 74 83 98 105
374 359 314 273 257 209 201 215 208 187 169 144 144 127 97 82 90 92 117 136 145 139 128 103 75 62 61 52 70 67 88 107 119
373 395 377 308 271 190 177 194 188 182 170 150 123 139 108 99 94 132 162 168 182 160 129 117 113 93 81 79 77 63 77 98 107
421 439 404 334 274 203 195 187 177 179 154 136 133 129 108 97 100 104 127 150 165 131 102 119 124 150 138 138 108 77 82 85 95
459 451 423 353 310 259 238 243 208 170 140 122 111 116 120 118 122 109 119 150 145 112 139 133 168 196 189 172 170 175 149 117 103

GFSFLT1_con_3kmhel_027.txt.gz
Helicity
11 9 3 -2 -5 -6 -6 -5 -2 2 7 15 22 16 16 11 8 21 16 17 27 37 29 26 11 4 0 0 -2 -5 -3 -1 -9
1 -7 -13 -20 -24 -23 -20 -14 -7 1 8 9 19 23 31 31 53 43 26 16 35 34 41 51 46 44 43 31 33 34 -5 -3 2
-8 -10 -16 -22 -24 -22 -11 -7 -3 8 11 16 25 32 44 49 63 60 43 36 46 41 56 55 59 87 109 111 107 87 45 60 23
2 -5 -14 -21 -25 -15 -9 1 7 15 25 19 28 32 46 59 58 64 52 48 53 53 55 62 106 119 133 142 135 129 122 109 111
16 15 2 -2 -13 -7 7 2 13 30 36 34 49 59 77 65 67 65 52 59 62 63 64 116 158 151 162 135 135 136 127 129 130
31 18 16 20 12 11 17 19 29 42 50 60 60 61 48 55 58 52 37 74 101 145 158 167 178 159 126 111 132 137 126 134 148
63 42 28 31 37 41 47 60 64 71 59 46 62 47 57 64 62 43 38 114 138 145 153 142 127 129 85 85 96 102 106 110 119
77 63 46 43 50 62 83 82 79 88 81 70 66 64 69 73 81 99 114 126 140 136 141 128 105 83 75 75 79 87 94 99 102
89 85 71 72 73 77 97 90 90 103 103 84 91 86 82 86 96 122 186 179 181 94 93 97 94 88 79 80 80 80 85 92 98
105 94 97 89 100 89 103 118 109 109 111 98 95 92 95 103 104 112 160 151 139 118 97 92 94 87 80 79 83 88 92 90 91
125 118 109 104 107 113 114 118 116 120 118 120 113 101 97 99 102 106 115 129 117 103 92 88 96 88 81 76 72 78 81 86 90
133 141 132 104 122 149 144 142 139 136 131 133 119 103 91 91 94 90 94 106 115 100 96 100 101 98 101 92 77 73 78 77 89
161 176 145 144 169 169 157 146 150 140 136 132 129 116 97 92 83 74 74 78 81 88 92 93 99 111 110 112 103 85 84 87 96
182 161 157 190 198 173 161 163 147 144 147 146 140 120 98 77 75 68 62 58 64 69 80 96 101 108 111 111 102 88 86 83 80
200 205 237 236 231 200 188 184 191 166 155 169 165 143 113 88 67 64 62 65 80 91 98 90 87 94 100 105 102 105 96 89 86
235 238 259 246 222 211 215 215 194 196 171 182 169 155 139 118 91 76 76 100 113 122 112 97 93 86 95 91 90 100 93 98 99
308 298 278 228 251 244 222 209 210 204 174 168 176 158 138 124 118 108 118 139 151 162 153 136 128 109 97 86 81 83 102 106 103
341 341 304 284 317 270 231 194 183 212 200 158 167 176 134 137 128 142 146 162 184 173 152 152 135 136 128 134 131 125 107 105 102
366 386 375 333 320 296 242 195 188 229 214 204 174 165 144 132 125 133 142 153 157 162 150 150 166 184 188 217 217 202 165 132 122
364 392 396 362 365 345 304 282 175 210 221 215 184 167 166 157 149 133 122 126 132 147 158 171 205 236 233 213 219 220 187 151 125

GFSFLT1_con_3kmhel_030.txt.gz
Helicity
23 20 12 4 -4 -10 -9 -5 -3 -1 8 8 5 5 7 5 9 10 6 22 11 45 50 65 54 49 10 4 -5 -5 -7 -8 -10
10 5 -5 -9 -13 -11 -8 -2 2 6 8 6 9 19 21 17 29 22 13 14 39 45 54 43 44 62 77 65 77 17 38 7 -8
12 2 -4 -11 -9 -7 0 2 3 8 13 13 14 26 37 36 38 32 25 25 42 50 56 60 86 98 100 116 111 119 117 88 82
2 5 -2 -4 -10 -1 4 7 6 12 16 25 31 37 48 41 33 34 28 25 44 49 50 75 115 109 105 102 106 111 131 129 131
9 1 -6 -3 -2 -14 21 23 19 25 29 42 50 57 57 41 36 32 31 38 44 50 96 155 148 126 123 140 130 132 133 133 139
26 19 6 2 4 22 27 32 39 41 51 52 55 59 40 42 41 38 40 64 110 132 162 177 173 133 123 101 92 89 90 98 104
49 35 33 27 30 33 35 53 63 46 42 43 57 46 50 53 50 38 37 113 141 137 152 130 122 116 95 81 84 87 84 87 92
80 69 54 52 62 63 75 70 66 61 52 56 58 61 66 69 75 65 101 123 137 126 121 122 103 87 78 73 74 76 81 81 83
109 91 83 69 76 83 85 81 75 80 78 70 73 74 75 79 95 137 171 189 175 97 92 95 86 76 74 71 72 76 74 76 82
126 112 105 91 89 91 95 98 93 85 88 85 82 83 86 91 101 123 164 156 136 106 92 89 80 71 67 65 72 79 78 77 77
138 138 129 111 96 104 102 104 109 99 91 101 96 92 94 104 111 116 126 136 118 103 94 93 88 79 77 69 73 72 74 78 83
138 148 146 126 137 138 141 136 131 118 110 119 116 104 104 105 110 109 110 114 113 103 100 96 88 87 82 80 66 63 68 73 83
158 160 143 158 161 162 160 147 147 133 116 123 123 114 101 100 105 104 96 94 96 96 102 95 97 92 89 86 74 58 56 58 72
187 166 160 191 185 163 178 169 144 140 140 141 142 122 99 93 98 101 94 90 92 98 110 108 101 98 93 85 77 71 68 69 58
197 191 204 218 208 198 192 182 180 154 150 170 169 145 121 104 95 92 91 90 95 100 103 97 94 105 93 85 84 85 79 75 78
218 202 204 224 218 187 213 214 186 189 169 199 175 165 143 132 111 97 93 98 110 124 119 105 98 93 95 92 86 84 90 99 94
237 227 243 234 226 228 216 222 224 198 167 180 189 154 149 140 132 115 108 124 135 147 139 131 119 106 98 97 108 105 105 110 114
259 274 285 260 213 218 227 234 235 235 179 162 181 175 139 162 147 141 128 132 158 167 153 148 134 130 127 139 141 153 145 128 118
296 318 303 308 270 286 247 252 257 263 218 215 188 203 176 176 164 140 134 137 149 168 160 153 149 157 166 193 216 216 198 184 159
345 339 340 303 368 286 329 315 296 301 244 245 247 234 233 217 199 167 124 129 128 141 163 160 169 198 212 211 216 234 211 184 156

GFSFLT1_con_3kmhel_033.txt.gz
Helicity
8 8 5 -6 -14 -15 -12 -5 1 -2 -3 -2 2 4 6 4 12 17 19 18 20 44 56 56 56 68 25 26 11 24 -0 -4 -8
6 2 -1 -6 -10 -8 -8 -1 5 4 -2 -0 7 15 20 16 18 19 18 20 34 46 56 65 85 110 114 101 99 80 76 51 12
-1 -2 -7 -8 -6 -2 2 4 15 12 10 9 15 26 26 23 28 22 17 19 36 45 54 82 110 113 117 112 115 109 105 108 118
6 -3 -8 -7 -5 -0 -5 13 12 11 17 20 25 33 33 25 23 23 20 16 38 47 59 120 124 123 130 129 124 123 118 136 150
12 9 -1 -2 -2 -10 20 18 24 22 28 36 43 45 37 28 27 24 22 9 37 74 129 144 134 107 111 132 120 115 102 98 122
35 21 17 21 16 33 27 30 40 47 43 41 45 33 24 28 32 28 26 87 140 154 164 145 109 96 97 90 88 82 79 86 97
50 48 50 46 57 53 50 58 49 34 28 31 42 37 41 43 39 37 43 108 113 119 122 112 107 84 76 64 60 62 66 65 68
64 72 66 70 76 77 76 60 51 47 37 38 42 47 50 53 54 62 87 97 116 117 99 103 85 77 66 62 62 67 66 63 66
75 86 89 90 89 93 82 74 74 70 60 50 51 55 59 65 83 102 167 194 143 101 85 80 76 69 66 63 66 63 64 66 73
97 102 106 100 103 100 99 93 89 81 71 64 61 70 81 92 99 109 157 147 122 91 78 69 62 60 60 60 63 63 62 68 70
109 117 116 109 104 109 105 103 100 98 82 82 75 78 91 103 112 118 122 140 112 90 79 74 67 64 52 51 51 55 56 62 62
114 121 129 119 124 124 135 135 126 117 104 95 91 97 104 109 115 122 120 117 127 95 84 71 70 59 62 55 41 37 40 44 52
121 130 130 137 151 144 148 152 145 123 111 111 116 111 113 114 116 115 119 119 111 113 94 82 77 72 68 61 50 39 39 36 41
129 138 131 153 164 154 167 175 147 126 125 130 129 128 116 112 116 121 120 119 108 105 113 104 97 84 75 69 63 60 50 48 39
147 146 135 174 180 175 175 163 173 150 149 150 150 143 128 120 117 120 115 107 104 100 96 88 91 103 91 77 69 62 59 58 55
159 167 147 185 203 174 161 208 193 200 176 185 165 157 143 127 129 128 121 109 105 100 103 99 93 92 97 89 72 61 57 65 69
205 200 189 202 212 190 205 249 250 218 172 182 186 144 142 142 143 133 124 115 121 123 121 121 113 106 98 88 90 95 98 97 90
253 254 255 251 226 228 233 230 241 262 189 179 190 188 156 175 171 149 138 129 137 143 146 139 131 118 110 108 111 136 135 137 137
276 274 293 286 275 202 222 228 226 294 288 227 173 203 180 168 157 157 151 148 143 145 154 152 143 135 125 132 142 144 145 143 145
302 302 333 341 342 236 266 311 255 264 298 314 287 243 214 206 207 186 185 176 155 163 168 158 147 144 136 136 151 174 177 167 148

GFSFLT1_con_3kmhel_036.txt.gz
Helicity
-2 -2 -5 4 -1 1 -9 -5 1 -1 0 0 0 1 -2 -28 17 21 26 36 40 52 58 59 59 62 51 33 20 34 17 -14 2
-5 -8 -10 -13 -15 -12 -8 -4 1 1 -3 -4 -1 4 -5 -7 11 18 25 44 45 53 61 86 111 118 109 126 132 108 76 81 30
2 -8 -12 -9 -11 -9 -6 2 -2 -3 -4 -2 4 8 -9 0 17 19 22 35 37 47 68 107 111 130 125 133 138 130 132 123 149
13 3 -5 -9 0 -1 -1 11 6 1 2 7 14 12 -1 8 20 18 17 34 33 43 104 126 121 130 109 107 110 116 132 144 142
27 14 7 2 13 9 29 23 17 22 24 25 25 18 -5 23 20 19 30 -1 28 73 103 106 89 90 79 86 92 97 102 108 126
49 47 39 25 18 47 46 49 47 43 39 33 25 -6 13 19 22 21 35 82 109 146 137 115 95 84 73 67 72 75 76 78 85
48 65 54 53 67 65 64 60 50 11 26 29 12 16 23 25 29 50 65 109 127 128 118 94 73 62 67 63 63 64 64 65 70
51 69 64 61 56 57 58 55 39 42 40 37 32 33 31 40 44 89 95 111 115 88 86 81 77 76 64 59 56 51 53 57 58
72 69 67 69 64 64 60 64 67 63 56 53 49 45 47 51 56 109 162 172 131 96 81 77 71 64 56 56 52 52 53 55 55
65 74 85 77 81 77 77 77 77 75 75 67 59 54 57 65 72 106 154 165 124 89 79 68 62 56 49 54 53 51 55 60 58
71 74 91 93 91 88 86 90 93 90 83 79 71 69 72 80 88 104 123 154 121 101 80 64 55 48 45 43 41 44 45 48 49
76 85 96 95 103 99 108 113 112 116 107 92 79 75 78 92 101 97 94 104 118 94 83 73 70 52 52 44 36 36 38 39 43
86 92 107 100 118 118 122 132 126 121 120 108 94 90 98 107 111 106 96 87 84 111 95 83 69 67 66 57 46 43 41 35 37
89 101 104 109 130 140 142 142 134 136 132 117 108 107 114 115 128 118 111 107 91 85 118 115 97 88 78 73 62 53 43 34 27
103 108 109 120 143 161 168 153 157 153 140 128 121 129 130 124 119 122 121 112 100 88 82 91 100 113 97 84 71 57 49 45 42
119 125 125 136 157 162 156 160 181 191 167 168 152 142 134 130 132 131 121 120 104 102 99 95 89 97 104 97 82 69 63 53 50
141 148 172 152 179 180 182 224 232 206 203 183 170 152 141 144 136 140 135 124 127 115 111 112 108 108 106 119 107 92 90 82 73
146 170 224 195 207 249 257 235 223 240 207 202 217 201 160 162 162 149 153 145 144 130 127 130 134 132 131 106 105 129 120 114 111
171 171 200 231 263 276 277 280 209 247 273 256 216 253 236 164 152 153 158 161 153 150 159 152 155 153 145 168 179 146 130 118 114
173 194 210 249 291 255 289 268 228 251 276 287 303 229 220 217 209 189 176 177 168 168 171 174 175 177 172 160 176 160 138 124 111

GFSFLT1_con_3kmhel_039.txt.gz
Helicity
20 30 33 29 26 23 15 7 11 11 5 4 5 -1 -26 -36 21 18 30 37 43 49 61 78 78 81 84 63 49 66 34 14 18
11 6 8 5 4 6 7 10 10 6 3 3 5 -2 -28 -28 10 33 42 51 47 56 77 96 106 107 114 121 117 110 87 101 62
7 3 -0 -1 -0 5 7 11 5 1 -0 2 5 -2 -25 -7 26 26 45 33 44 50 80 89 90 95 101 114 115 111 121 122 129
13 7 7 6 7 5 14 9 6 5 4 7 5 -3 -19 5 29 18 42 42 39 56 93 83 84 99 84 86 91 99 140 144 132
27 21 13 11 16 15 27 22 21 23 22 17 9 -6 -21 19 18 24 38 29 36 84 98 91 84 79 63 69 65 81 112 137 145
57 44 55 32 38 41 41 37 39 37 33 25 14 -9 8 22 25 44 56 92 121 154 130 111 80 60 65 72 70 67 75 84 95
38 86 78 60 63 69 58 49 39 12 30 27 12 6 27 30 31 92 91 112 131 124 112 94 77 64 67 63 59 57 54 61 69
71 71 70 72 74 60 60 53 34 30 41 44 32 42 31 38 40 109 93 111 107 98 86 78 74 67 62 57 53 57 56 52 59
56 61 62 57 86 56 63 60 59 62 54 52 53 50 46 43 72 123 148 147 113 87 72 77 72 66 63 58 57 57 62 61 62
67 62 97 76 79 68 79 74 87 74 73 72 68 63 58 57 83 148 181 166 136 103 83 77 69 60 58 54 54 52 57 56 60
66 95 131 98 72 92 87 90 99 95 101 91 79 73 74 76 89 162 149 159 133 106 89 77 67 55 53 51 48 53 49 53 50
74 71 158 133 98 86 96 109 129 134 125 117 104 94 85 89 98 147 142 128 139 105 86 73 74 59 59 55 53 47 44 49 51
91 105 166 155 132 105 123 129 150 154 148 147 143 119 111 96 105 131 148 116 105 129 105 85 76 69 74 74 65 63 52 47 44
96 127 156 177 148 139 166 153 151 160 173 170 162 144 135 117 128 132 135 140 127 94 146 147 115 100 88 86 82 69 58 44 40
118 123 119 152 163 181 194 173 181 188 197 189 188 178 153 135 147 144 157 164 136 147 138 139 133 122 105 99 95 79 61 50 47
140 155 131 147 177 200 175 170 209 243 248 258 232 198 150 150 165 155 180 163 151 154 165 123 137 132 118 112 104 96 79 68 67
177 176 180 183 196 198 207 207 259 287 301 324 238 217 168 155 181 171 183 167 180 173 173 143 151 146 125 141 132 116 113 106 94
165 179 199 216 230 243 248 260 272 319 305 263 320 255 239 199 171 186 199 181 205 193 187 177 168 181 172 176 143 153 152 135 129
166 184 204 229 270 279 288 317 340 345 354 301 226 328 341 249 204 167 172 178 181 198 207 204 214 212 200 220 242 174 175 152 142
107 150 186 235 269 265 285 317 394 389 377 366 392 318 317 321 316 259 194 151 173 197 206 246 226 222 223 245 230 212 189 164 149

GFSFLT1_con_3kmhel_042.txt.gz
Helicity
36 34 31 32 34 26 21 19 16 13 8 5 -3 -26 -20 -15 -10 18 42 31 38 53 72 83 91 105 82 78 94 70 29 23 15
5 9 10 14 14 17 20 19 15 9 6 4 -4 -27 -23 -24 25 50 39 27 45 68 81 106 107 117 114 110 100 109 106 84 65
9 5 7 9 10 11 15 10 8 3 2 0 -12 -27 -18 -2 34 29 28 36 46 67 80 84 91 93 93 102 96 97 110 120 121
18 16 16 18 18 17 17 11 8 6 5 2 -9 -18 8 24 23 55 33 41 52 81 74 76 78 79 76 82 96 112 128 135 134
36 25 19 26 29 35 29 23 21 19 16 7 -2 -8 -1 12 17 39 26 43 63 94 89 82 77 74 62 74 84 94 113 117 113
52 28 48 25 48 49 48 40 37 35 29 20 1 -9 6 25 48 37 64 79 118 127 102 87 62 63 64 67 67 70 78 86 90
40 84 77 68 58 72 64 53 43 31 31 26 8 21 9 39 80 81 103 130 137 123 115 93 73 64 60 65 63 68 77 78 81
127 97 78 83 84 78 82 66 45 31 42 48 44 52 49 38 113 99 108 114 110 114 102 83 82 75 72 64 63 67 63 75 78
100 102 85 87 82 61 77 75 50 55 83 75 71 77 57 75 154 135 149 129 114 102 84 81 85 82 73 71 61 65 64 64 75
134 91 102 73 111 73 90 81 78 104 82 91 104 97 82 93 185 165 186 174 131 106 87 86 80 77 79 69 63 58 59 57 60
152 112 157 146 108 76 130 117 129 112 112 111 107 107 112 113 185 200 187 186 163 129 103 89 82 78 74 68 60 54 50 55 50
152 114 163 189 131 118 155 145 152 164 164 132 134 142 131 141 205 195 182 184 171 137 109 97 85 77 72 66 60 56 58 60 60
146 152 184 214 190 125 166 199 213 203 197 182 166 169 163 165 164 217 185 168 169 157 137 113 101 85 85 73 66 72 64 63 60
131 143 192 225 236 176 129 222 276 247 216 189 192 204 197 187 184 189 208 164 186 179 172 157 131 104 97 89 84 83 78 64 55
187 166 176 259 254 206 156 250 286 248 207 216 229 232 223 194 197 206 196 224 229 215 213 213 195 154 117 105 102 92 79 70 63
219 224 194 274 270 235 182 273 276 242 255 299 301 291 210 203 195 208 203 236 232 258 243 211 197 174 133 119 109 97 91 84 75
284 244 278 248 271 300 290 353 372 304 325 377 373 278 257 204 215 229 217 243 252 257 246 211 210 187 185 162 124 123 115 114 111
262 254 303 299 284 299 360 378 386 370 351 409 361 288 277 250 224 215 243 271 300 271 269 241 227 217 200 179 168 154 151 149 144
127 194 267 268 266 299 333 404 435 471 392 414 293 352 333 282 238 208 199 249 283 279 278 262 239 265 298 217 201 179 178 181 178
144 93 152 224 240 259 285 382 433 481 476 480 470 346 380 368 365 302 270 255 279 299 290 271 259 249 346 337 285 216 207 193 190

GFSFLT1_con_3kmhel_045.txt.gz
Helicity
36 35 39 43 31 25 24 17 9 4 -2 -14 -21 -5 2 18 19 29 19 23 41 62 74 80 113 123 108 105 112 57 15 3 12
17 14 17 22 22 22 21 14 7 1 -7 -17 -22 -11 0 18 28 26 20 21 58 73 96 95 102 108 95 86 102 108 91 76 71
15 15 11 14 16 19 16 11 6 0 -5 -14 -18 -2 -5 24 31 23 28 31 56 70 79 86 83 88 107 97 91 91 111 101 99
26 22 23 24 23 22 13 10 8 6 2 -5 -4 15 25 35 20 33 24 33 59 69 64 73 78 76 85 99 93 100 114 112 104
35 28 30 34 31 34 21 16 16 16 12 5 2 19 17 47 57 32 25 40 77 92 79 75 72 72 75 88 94 103 108 113 111
33 34 43 43 50 49 41 37 35 34 25 17 14 24 21 45 50 36 61 77 114 99 77 71 72 78 82 82 83 89 88 99 96
24 24 48 59 66 68 61 58 52 52 39 33 29 30 29 72 72 65 103 149 130 122 114 92 81 77 72 73 76 74 76 87 91
56 69 59 68 70 70 71 62 57 58 62 53 56 46 52 90 99 99 137 157 124 130 112 88 84 78 73 74 77 73 74 76 76
95 100 91 103 94 81 74 67 54 55 61 71 83 71 90 110 120 113 140 142 130 118 105 88 89 87 80 80 75 77 74 73 74
134 90 100 96 110 104 80 67 69 73 73 87 99 95 106 146 162 160 169 159 148 133 109 93 94 91 87 80 77 67 69 64 65
134 128 119 105 91 97 97 98 85 94 109 98 102 111 111 144 167 179 179 173 161 141 121 100 96 96 92 86 77 71 64 66 65
138 162 165 137 119 89 98 85 119 143 141 132 128 128 132 158 179 194 195 178 161 148 129 114 98 96 93 84 78 74 72 71 71
155 169 166 179 172 179 172 159 159 177 183 172 141 142 145 181 178 190 204 189 171 145 130 124 110 101 93 85 76 77 77 78 80
180 188 165 182 180 184 194 190 222 229 229 199 182 167 169 167 235 218 222 196 190 173 140 149 149 114 98 91 83 83 88 86 79
192 186 223 233 232 202 226 226 242 259 260 241 209 192 186 197 207 255 237 226 215 190 188 192 198 145 116 100 96 102 103 94 88
210 242 232 278 280 250 234 243 237 251 335 325 267 241 203 204 203 229 288 275 254 237 231 234 237 206 150 126 122 110 105 96 89
241 226 289 319 320 304 291 312 331 306 386 376 340 273 270 237 221 250 261 306 332 286 258 263 248 237 229 185 127 117 110 104 99
170 204 253 273 340 336 333 335 362 342 419 417 380 300 262 229 247 238 285 297 356 370 318 278 260 247 245 207 161 121 123 109 102
114 137 174 230 254 304 343 366 377 472 442 502 383 427 326 251 214 211 224 276 281 321 360 304 268 247 282 228 182 129 109 127 113
111 99 128 174 234 228 259 350 318 397 437 492 510 467 473 409 344 242 257 266 293 282 302 345 315 310 305 283 205 128 115 139 122

GFSFLT1_con_3kmhel_048.txt.gz
Helicity
49 65 53 31 21 21 13 4 -3 -9 -8 2 11 12 23 33 1 1 11 9 50 60 69 88 102 89 89 105 53 23 14 25 4
41 40 33 25 22 18 13 3 -6 -12 -16 -11 2 4 11 22 10 15 19 22 58 82 82 84 92 88 86 94 113 115 100 94 60
28 31 33 28 26 21 15 6 -3 -10 -9 -4 1 11 51 36 29 23 21 34 60 62 70 72 77 83 79 88 100 113 112 98 101
10 18 26 28 28 24 17 9 2 -5 -9 2 11 43 52 47 35 39 28 30 57 64 61 64 70 71 83 88 101 106 118 119 118
16 11 11 21 25 24 22 17 10 4 2 11 26 42 65 57 52 48 31 37 80 81 75 60 60 65 70 79 88 83 94 96 108
27 18 23 22 21 27 24 23 20 18 13 15 33 48 56 54 48 39 22 79 121 104 87 69 74 75 73 75 82 82 84 90 92
36 34 32 24 26 30 23 28 32 39 30 27 24 49 63 64 58 53 54 101 118 107 104 84 82 76 73 74 77 80 81 83 83
55 47 40 49 53 53 46 39 39 45 52 48 43 47 67 71 60 70 104 137 145 133 119 101 86 78 75 76 75 79 80 79 79
62 55 61 72 79 84 83 75 68 58 52 53 48 49 74 80 84 81 116 119 123 111 106 101 91 84 82 78 78 81 80 76 77
84 68 78 79 100 98 93 86 83 80 74 82 79 66 94 94 112 115 116 135 123 116 103 96 88 85 85 83 79 77 75 74 73
108 98 87 81 103 101 99 97 93 83 99 99 103 92 113 111 127 136 141 142 139 123 110 102 92 86 88 85 83 74 75 73 69
134 141 132 112 114 115 105 96 110 102 104 109 120 134 121 129 134 151 160 161 152 138 116 110 100 95 86 84 83 77 80 75 76
156 158 175 163 160 152 153 129 124 125 134 133 129 144 149 144 150 170 175 180 181 157 124 118 107 96 88 86 85 83 81 83 78
168 171 185 217 205 203 199 177 194 191 175 165 161 161 166 161 180 186 196 196 200 197 138 130 123 115 90 83 86 86 93 95 86
158 182 189 230 237 219 240 218 238 235 230 225 200 185 172 185 198 213 213 224 225 217 188 175 167 159 104 87 85 91 93 90 85
192 187 183 230 237 232 237 251 237 236 265 294 259 239 182 176 221 237 250 250 245 244 221 213 215 206 148 114 99 94 95 93 87
194 202 216 245 228 245 250 286 285 285 332 351 351 283 249 236 243 296 287 281 306 289 274 254 228 226 225 206 131 106 99 89 87
163 173 194 196 223 254 300 301 317 245 327 376 360 302 266 227 185 202 280 305 337 321 329 295 267 223 229 214 188 157 132 100 93
137 145 163 172 208 232 263 285 287 316 290 314 279 367 328 269 209 186 168 208 242 299 340 322 296 266 261 231 221 182 157 111 98
117 131 123 162 193 211 217 264 292 318 267 366 331 353 415 401 352 237 249 206 185 240 261 277 289 313 301 275 215 158 136 133 149

GFSFLT1_con_3kmhel_051.txt.gz
Helicity
55 67 42 16 14 8 -2 -7 -9 -6 4 -2 -4 -18 17 21 -0 -12 4 17 43 61 69 69 67 68 89 57 14 13 35 29 14
50 53 20 9 7 3 -1 -8 -14 -16 -8 -6 2 4 37 12 -4 1 14 22 68 72 73 72 64 59 76 87 97 98 99 92 36
16 20 9 2 -1 -2 -5 -15 -24 -31 -23 -14 -20 18 55 24 11 13 20 35 60 55 51 57 62 63 69 74 83 92 96 94 102
-7 7 1 -2 -1 -1 -7 -13 -18 -19 -17 -2 3 31 38 32 17 17 19 24 43 46 37 43 52 57 58 64 75 81 90 97 107
-0 2 1 5 8 3 -3 -8 -12 -10 -3 7 34 32 36 42 32 26 17 9 66 77 64 32 42 52 54 59 70 67 70 75 92
34 33 29 29 35 26 13 4 1 7 16 15 32 41 34 38 34 34 16 15 97 92 83 49 51 52 54 60 63 67 67 71 72
43 30 29 27 32 48 36 30 31 38 33 30 40 47 41 45 38 33 15 35 93 110 101 80 66 59 60 64 64 67 69 65 66
58 52 43 40 41 54 50 50 52 53 57 56 53 60 53 57 55 41 29 57 122 140 121 86 75 66 64 66 64 70 71 57 59
59 55 47 50 60 67 69 69 66 61 59 62 58 73 73 73 72 66 65 102 113 96 98 97 80 73 70 65 66 77 67 61 55
67 54 56 49 67 72 79 78 79 73 68 71 72 77 85 84 89 92 74 91 108 104 95 94 89 72 75 77 69 73 66 58 55
82 68 70 65 71 76 92 99 96 86 89 76 80 76 94 95 92 105 106 92 110 106 89 82 80 75 68 75 74 68 64 64 61
98 91 91 85 94 88 91 87 94 89 93 86 79 78 90 102 105 119 129 121 109 115 82 72 71 78 63 64 74 66 64 67 63
128 125 119 125 138 143 134 121 124 120 119 123 101 107 101 108 111 136 145 149 151 130 106 90 75 71 70 56 63 68 72 72 72
136 151 155 179 176 182 174 158 179 160 156 154 147 147 135 131 143 150 164 171 180 183 142 116 113 103 73 62 60 70 78 78 75
154 151 154 189 192 188 219 196 218 212 192 179 179 172 173 164 182 173 171 195 210 221 203 174 163 129 101 62 55 57 65 72 76
177 177 182 221 213 196 214 242 224 206 244 242 210 198 185 178 212 238 234 231 245 255 246 231 209 179 128 96 60 59 55 57 64
151 154 164 202 222 221 237 270 258 259 274 254 276 211 187 203 206 263 262 256 291 265 271 270 243 215 216 185 105 74 65 69 61
140 149 169 164 201 210 215 244 257 212 260 282 247 225 197 188 175 158 162 185 246 249 258 250 258 244 222 199 184 141 106 65 54
139 141 157 176 212 220 203 206 209 233 209 276 237 303 301 227 195 204 216 145 148 203 235 223 237 255 262 237 234 195 157 104 77
173 147 134 144 178 170 179 205 199 222 180 252 266 244 316 336 294 163 194 216 159 142 152 168 225 225 260 293 288 242 209 86 91

GFSFLT1_con_3kmhel_054.txt.gz
Helicity
44 35 5 -6 -11 -16 -17 -18 -24 -27 -36 -45 -49 -37 -10 -7 -24 -23 -13 -11 27 46 50 38 45 50 67 23 14 45 47 10 10
23 18 -6 -13 -15 -18 -21 -20 -23 -27 -31 -39 -50 -10 1 -9 -19 -18 -9 -6 31 38 45 40 34 28 48 62 67 76 81 47 27
6 9 -13 -20 -19 -19 -21 -21 -17 -16 -14 -16 -26 19 17 4 -6 -12 -5 3 16 27 20 36 39 37 37 40 59 71 77 88 74
-15 -10 -15 -17 -12 -14 -17 -19 -16 -10 -10 -9 1 28 23 18 8 3 2 -5 16 31 23 20 27 39 40 45 54 58 74 84 104
45 17 -4 6 11 8 1 -8 -13 -6 6 9 18 28 32 28 20 13 8 -6 38 64 43 13 21 25 30 40 52 60 57 71 77
10 18 12 16 31 28 23 23 25 34 40 50 46 40 29 29 26 24 8 -0 57 99 80 54 45 39 33 33 39 51 47 55 61
45 32 25 18 25 32 32 32 35 46 43 46 52 46 40 35 32 29 7 -0 58 104 98 78 54 43 39 36 30 37 47 55 61
48 44 35 32 32 41 46 52 51 51 53 53 58 55 54 50 47 37 19 -0 85 130 100 76 68 52 48 44 36 42 44 47 58
47 47 42 41 47 48 55 60 55 50 52 57 59 58 60 57 56 54 35 28 98 91 69 68 67 57 50 53 47 52 44 44 49
56 44 44 44 50 52 55 61 64 62 63 61 61 58 63 61 64 66 49 53 75 82 79 70 65 60 50 53 50 54 48 53 57
69 60 51 49 62 66 69 72 71 66 70 58 58 57 69 70 69 76 67 54 72 88 78 70 54 46 49 43 50 51 45 48 55
78 81 72 64 73 73 79 78 84 80 81 67 62 70 68 75 76 80 89 83 72 82 72 67 56 43 45 44 45 50 51 45 48
87 84 82 93 104 110 108 106 101 101 108 114 92 97 95 92 95 101 101 112 113 106 96 84 73 62 46 47 45 55 55 59 54
120 118 110 122 126 137 138 131 146 133 140 145 132 120 119 116 128 127 125 126 142 151 125 106 104 98 70 52 48 50 59 63 65
149 142 143 170 163 147 172 157 176 176 172 171 151 136 133 132 139 148 168 179 179 181 177 161 147 121 112 70 49 47 55 64 60
134 145 155 184 175 164 189 207 185 185 222 205 168 171 152 162 170 196 180 187 206 207 206 199 192 173 122 105 68 52 52 46 55
146 150 144 158 168 174 183 225 208 206 236 227 219 163 129 112 112 153 167 161 193 195 196 198 189 184 176 164 109 69 50 67 62
141 143 151 160 177 163 170 210 205 181 197 228 212 188 159 151 128 116 111 110 130 144 155 165 166 175 186 161 150 133 98 56 86
145 132 136 143 169 177 169 184 195 211 174 212 172 207 245 174 175 186 157 137 104 106 104 124 147 154 168 167 184 190 157 96 74
168 175 159 138 143 141 160 175 177 207 195 216 210 164 206 198 190 148 155 159 129 107 108 106 124 154 167 186 199 190 194 120 135

GFSFLT1_con_3kmhel_057.txt.gz
Helicity
18 1 -14 -13 -16 -22 -25 -31 -37 -41 -46 -52 -50 -23 -15 -30 -29 -22 -17 -10 16 24 18 32 31 44 54 48 49 63 35 13 6
14 -1 -17 -18 -17 -20 -23 -27 -34 -40 -42 -46 -34 -11 -11 -21 -19 -17 -13 -7 -2 -5 -4 12 14 15 17 37 48 63 62 25 22
-0 -13 -21 -18 -16 -16 -18 -21 -26 -31 -31 -37 -16 3 -3 -11 -9 -6 -3 -15 8 15 14 11 16 21 19 15 33 47 58 85 66
-12 -26 -18 -12 -7 -10 -12 -15 -16 -13 -11 -9 8 13 7 2 4 7 6 -9 16 37 28 18 19 19 23 23 26 30 41 61 76
18 2 -5 1 7 7 7 8 13 20 30 38 36 35 26 17 18 17 13 -10 20 65 53 40 31 29 29 27 28 36 39 35 48
23 11 5 13 22 21 19 16 24 32 35 38 39 33 25 21 21 19 10 -7 15 62 80 66 50 41 36 35 34 37 34 30 34
31 28 26 23 23 26 24 28 41 39 40 38 38 38 39 34 30 31 13 -4 4 76 105 77 57 49 43 41 35 38 40 39 39
38 38 40 37 35 34 37 41 40 44 47 47 43 40 43 42 39 32 14 14 25 123 97 66 53 47 44 47 44 46 41 36 37
43 46 43 40 39 36 37 39 41 47 52 54 50 47 45 44 47 39 23 23 40 93 70 58 54 51 46 47 48 57 46 41 39
48 45 43 41 40 40 44 48 51 53 56 54 53 52 50 45 50 49 34 32 36 60 75 69 52 52 47 46 51 59 54 53 51
51 47 46 44 48 50 53 54 55 56 59 52 57 58 56 54 52 53 49 41 46 57 66 68 60 48 48 42 51 53 55 57 58
51 50 49 51 55 50 55 58 65 69 71 63 64 71 65 65 61 61 62 59 51 52 54 53 63 53 49 45 41 52 44 53 57
55 56 52 54 59 65 71 78 82 83 85 85 81 84 81 72 72 79 78 81 81 77 64 57 56 58 53 45 43 43 61 56 53
68 69 65 69 80 85 89 92 97 93 99 101 83 93 95 85 87 79 90 91 91 94 89 87 81 78 63 50 42 43 63 63 57
76 74 73 89 100 99 111 111 116 116 106 109 112 114 105 104 101 88 99 107 90 89 88 92 94 89 81 59 47 38 59 72 74
78 79 78 95 101 90 100 112 117 123 145 140 121 106 96 103 108 98 101 83 95 87 93 105 111 108 88 78 55 43 36 59 81
99 103 102 101 111 100 102 124 148 153 165 171 182 132 110 111 83 80 92 95 104 106 101 96 98 91 104 100 89 57 41 41 67
119 109 108 108 126 133 123 135 143 155 174 153 181 178 145 120 117 88 86 83 83 75 86 53 75 99 115 103 100 89 81 52 65
167 155 148 138 144 148 145 149 153 174 179 201 170 172 200 153 161 174 114 100 87 80 79 85 95 98 122 115 123 132 123 101 72
197 190 183 166 157 143 138 136 154 176 181 203 203 164 188 187 175 168 125 133 130 103 93 97 100 119 103 109 119 96 92 85 81

GFSFLT1_con_3kmhel_060.txt.gz
Helicity
-7 -18 -21 -22 -25 -25 -26 -29 -30 -35 -37 -38 -23 -16 -32 -44 -21 -15 -9 -7 -6 -1 2 11 12 10 22 33 45 40 28 21 12
-2 -18 -25 -24 -28 -30 -31 -31 -29 -32 -31 -32 -13 -15 -32 -25 -12 -11 -11 -5 -2 0 1 3 7 7 11 13 27 45 66 45 32
-17 -27 -25 -20 -18 -17 -19 -22 -24 -25 -25 -22 1 -7 -28 -7 -4 -2 -1 -1 17 25 16 7 4 4 6 11 26 49 47 62 81
-7 -17 -23 -16 -16 -17 -17 -16 -18 -18 -14 -10 9 4 -14 -9 4 0 3 18 35 41 31 21 15 13 12 15 21 30 39 43 55
3 -13 -18 -13 -5 0 0 2 4 4 6 10 13 12 8 10 11 13 18 -4 13 53 53 38 34 29 26 24 30 38 37 46 46
5 16 5 1 2 10 14 22 29 27 27 23 22 8 23 22 22 22 48 11 4 53 77 66 49 41 38 35 36 41 45 43 41
18 33 29 25 26 31 28 35 39 21 26 38 36 29 35 35 33 30 37 23 14 26 88 68 54 49 46 42 42 47 51 54 50
36 43 41 39 40 36 38 48 38 40 41 47 44 45 47 47 47 50 42 31 32 95 86 68 58 49 46 47 47 55 55 56 56
52 47 48 45 47 49 46 51 48 46 45 44 45 50 52 53 58 63 64 46 45 63 72 69 59 53 50 48 45 56 57 60 64
50 46 43 43 49 50 54 49 48 50 53 53 54 54 52 53 64 62 87 52 48 48 52 74 61 54 52 47 50 52 50 55 62
54 52 47 46 51 59 60 62 62 60 58 55 56 56 61 58 60 63 64 73 47 43 51 55 61 51 41 50 46 52 55 50 55
56 56 55 57 62 60 61 58 59 61 62 59 65 73 71 71 66 69 69 73 70 53 48 46 48 51 45 49 50 60 57 49 45
58 61 63 70 70 66 61 64 68 67 69 73 82 88 77 65 67 75 79 74 71 82 69 51 43 43 52 46 57 54 64 71 62
60 64 68 72 77 77 80 83 85 88 91 90 88 91 85 78 89 83 84 76 84 83 92 87 62 52 49 51 52 70 65 71 79
69 71 67 75 81 83 88 88 97 99 101 99 92 96 91 94 95 88 93 88 80 77 80 93 87 87 66 60 49 51 68 84 84
78 79 78 81 86 84 90 100 102 106 109 132 119 99 104 100 101 86 84 91 84 72 86 97 93 93 108 74 58 46 50 58 93
91 88 89 87 94 88 93 104 117 118 134 155 163 159 118 122 101 87 80 72 75 83 77 81 78 79 89 89 88 69 60 50 59
107 104 107 109 131 131 126 138 133 171 162 133 190 187 138 194 151 106 94 80 92 99 88 92 91 93 92 107 125 107 89 66 55
130 127 132 141 152 146 135 147 155 172 185 223 173 177 235 203 191 142 100 122 115 97 88 76 70 91 112 119 111 128 133 113 81
149 161 161 156 152 139 134 129 142 162 175 195 211 181 194 176 197 182 155 146 135 111 101 105 108 124 134 144 166 172 155 132 117

GFSFLT1_con_3kmhel_063.txt.gz
Helicity
-15 -17 -20 -25 -28 -31 -29 -31 -34 -30 -28 -16 -15 -28 -55 -43 -28 3 11 -9 -10 -10 4 15 15 13 22 22 42 51 38 21 18
-14 -18 -22 -23 -25 -26 -27 -27 -26 -21 -18 -6 -13 -24 -37 -25 -16 -8 -2 3 7 7 12 11 8 10 18 27 29 43 60 63 57
-24 -16 -16 -15 -15 -17 -18 -23 -23 -20 -18 -12 -13 -27 -47 -13 -1 2 29 14 24 27 25 22 16 15 17 26 36 42 45 57 75
-12 -12 -15 -14 -15 -18 -18 -21 -20 -16 -9 -1 1 -11 -27 -14 10 8 45 35 39 42 44 35 28 23 23 30 37 44 47 46 52
13 -1 -6 -5 -1 0 5 4 5 7 12 19 19 9 0 14 23 32 45 39 40 57 63 60 46 40 33 33 36 42 48 56 66
9 38 30 10 7 8 11 19 25 24 32 36 30 16 30 40 41 49 65 37 30 59 75 72 59 52 45 41 44 49 49 54 60
58 71 51 35 33 33 31 36 31 21 31 54 46 34 48 52 55 78 83 53 40 44 89 72 62 60 52 47 49 55 55 59 60
51 59 51 45 44 43 47 49 27 43 44 50 41 55 57 58 69 94 100 72 63 71 78 75 69 64 58 55 56 59 56 57 59
71 66 66 59 67 50 56 49 53 51 48 45 53 57 58 60 75 85 106 84 73 72 77 86 77 69 68 65 66 65 60 60 63
71 68 66 62 62 62 61 59 55 52 53 53 53 51 51 54 72 72 107 90 66 58 55 69 81 73 72 69 66 67 68 63 61
64 72 71 65 64 63 63 64 67 68 64 57 55 58 59 63 70 76 81 92 79 62 59 64 75 77 71 73 71 75 72 67 61
62 65 73 74 70 66 71 69 68 65 65 59 63 77 76 77 77 78 78 100 98 93 74 67 63 63 70 64 70 80 73 74 64
66 70 74 75 78 76 75 72 73 73 77 81 85 92 89 76 77 82 88 109 106 122 91 85 68 59 57 58 63 84 80 71 94
74 78 83 83 85 80 77 80 80 92 90 95 95 109 110 99 104 84 93 104 136 133 124 112 105 93 71 63 64 78 107 98 77
85 91 90 95 104 94 89 88 100 112 115 118 115 115 120 118 117 101 118 131 136 147 112 133 112 96 86 76 68 64 79 95 97
98 101 102 104 100 92 89 103 117 124 106 117 125 99 97 104 116 130 112 112 133 92 92 94 97 111 97 86 69 55 47 66 93
110 104 105 118 123 97 100 111 146 155 160 189 158 154 121 125 160 181 142 118 115 120 99 103 101 111 121 113 77 69 61 51 62
150 154 151 142 158 159 163 183 187 180 190 172 201 196 182 191 217 210 165 104 115 145 156 125 125 119 129 134 156 180 158 123 76
136 127 120 125 142 157 157 154 161 179 177 207 200 199 242 212 223 199 150 112 131 125 135 122 114 121 113 117 155 173 159 137 117
137 139 150 146 156 158 153 143 137 155 169 174 183 174 173 184 216 208 180 137 153 137 112 98 139 168 141 170 175 197 184 174 166

GFSFLT1_con_3kmhel_066.txt.gz
Helicity
-15 -17 -20 -19 -17 -18 -18 -22 -19 -18 -16 -20 -28 -16 3 -17 -14 4 36 -2 11 16 23 18 20 27 29 35 42 57 60 59 46
-15 -17 -19 -16 -11 -11 -11 -16 -17 -16 -14 -18 -29 -35 -13 -20 -4 0 4 12 28 30 28 24 25 29 33 36 43 45 54 70 66
-17 -15 -12 -8 -7 -6 -12 -18 -21 -19 -17 -14 -21 -27 -21 -5 2 44 29 40 42 45 46 39 38 37 40 44 46 43 45 56 63
-17 -16 -13 -11 -7 -6 -5 -12 -11 -6 2 7 -2 -9 -6 13 25 55 40 47 54 57 55 55 54 54 56 56 57 59 58 57 62
-1 -7 -8 -3 5 8 12 11 12 17 25 27 19 8 2 17 44 78 52 57 51 64 67 64 61 66 68 65 66 66 63 63 65
10 20 21 17 15 20 22 24 24 26 36 46 37 21 35 51 64 80 86 70 53 62 78 76 70 68 70 70 73 71 70 67 67
78 63 55 44 41 43 39 39 37 29 41 50 41 45 41 63 73 90 98 85 67 58 65 84 78 74 74 75 76 76 76 69 67
64 61 61 55 47 44 47 40 27 29 43 56 45 51 62 56 67 102 106 90 70 59 95 92 84 81 77 83 83 82 80 77 74
57 74 52 49 63 38 54 63 32 50 52 47 50 56 65 61 64 94 107 93 75 65 81 87 90 86 84 88 91 90 83 79 79
51 62 78 61 64 54 63 58 61 65 50 57 66 61 55 55 67 100 107 93 83 73 59 76 88 88 89 92 91 87 81 75 74
55 61 73 72 77 72 69 65 63 64 70 60 57 64 76 78 80 90 105 95 83 85 75 62 84 93 85 69 73 73 81 70 58
57 59 72 68 75 75 72 77 80 80 69 65 65 70 77 90 96 107 115 117 101 98 97 81 75 69 76 75 70 74 72 76 82
57 68 65 78 85 94 89 85 81 78 78 78 72 87 101 110 89 102 122 144 153 119 103 97 89 78 71 66 66 79 96 78 67
72 71 75 84 99 108 102 88 96 97 99 96 105 106 112 130 129 128 125 130 162 199 156 104 106 91 81 73 63 61 82 109 92
94 89 92 103 102 106 106 107 108 112 112 109 118 116 96 129 142 115 101 129 134 167 143 125 108 81 77 68 58 53 48 75 85
112 114 105 116 125 117 112 119 116 124 123 132 130 126 122 125 120 126 139 110 120 134 137 115 105 100 71 64 65 59 45 29 62
142 133 119 134 147 124 121 135 140 152 158 173 163 161 152 116 107 136 185 182 170 150 137 119 130 123 120 129 102 100 101 77 49
171 176 161 156 151 141 147 163 167 160 175 189 225 199 185 189 164 181 211 189 154 166 189 165 168 176 145 148 160 157 125 106 89
184 174 166 150 150 146 143 150 167 182 191 191 198 195 214 193 202 192 208 205 177 158 158 128 125 126 140 202 200 181 164 149 135
149 152 158 153 148 153 164 167 168 175 184 181 172 166 168 178 196 193 163 177 178 139 131 143 210 159 132 148 163 181 185 170 153

GFSFLT1_con_3kmhel_069.txt.gz
Helicity
-11 -14 -16 -18 -20 -17 -15 -8 -8 -12 -24 -22 -7 8 1 4 -10 -12 -1 -6 19 18 16 20 23 26 34 45 59 72 66 64 67
-13 -17 -19 -20 -19 -15 -10 -3 -6 -14 -27 -38 -27 -7 -0 -4 -4 3 21 22 42 41 39 36 37 38 40 47 54 55 62 66 63
-15 -17 -17 -18 -18 -18 -16 -11 -9 -11 -12 -21 -21 -1 4 15 39 30 34 55 59 55 51 50 52 51 52 54 55 62 63 65 58
-32 -26 -19 -17 -14 -12 -9 -2 6 11 9 2 -2 7 10 24 36 48 44 56 69 70 67 62 59 61 61 62 61 62 66 67 66
-15 -24 -19 -11 -0 4 9 16 19 26 27 26 17 15 15 30 61 56 46 66 67 73 73 73 69 70 68 68 66 67 73 75 72
7 3 7 11 13 17 25 31 36 40 40 40 37 30 43 41 58 65 73 69 64 71 69 83 77 71 71 70 68 68 73 78 74
14 31 40 43 45 42 43 45 43 41 40 36 32 48 42 53 68 69 79 75 64 55 82 81 81 75 69 68 68 65 69 73 76
52 42 49 44 47 48 49 43 35 39 42 44 39 39 43 54 66 66 84 76 70 62 58 93 92 87 80 79 75 68 65 68 76
58 46 31 35 37 37 41 41 38 29 38 49 40 48 51 50 61 64 82 79 69 63 78 84 87 92 87 84 82 72 65 66 69
61 39 45 34 43 42 32 32 34 27 31 43 48 49 54 53 57 74 76 87 77 70 61 70 83 87 86 84 82 68 58 57 58
61 50 48 46 48 41 59 58 51 55 59 49 49 46 50 57 70 91 97 96 92 82 69 66 55 91 103 87 66 69 63 56 49
62 58 49 49 55 58 60 54 72 70 66 56 55 57 62 73 80 87 111 111 102 97 75 69 67 67 78 73 73 77 75 66 58
68 63 60 44 60 73 80 79 77 75 76 78 72 76 77 77 90 104 110 131 133 122 106 88 53 65 65 55 47 54 81 85 74
74 66 59 71 90 96 98 94 102 97 90 85 90 88 93 93 108 107 119 116 117 153 146 112 84 72 65 51 32 21 43 64 89
74 70 63 80 98 93 100 92 98 107 108 102 108 103 95 90 86 86 97 114 107 100 135 121 109 76 67 49 39 22 14 25 53
85 84 75 70 89 97 105 115 114 108 115 129 133 125 123 143 117 114 105 124 142 156 152 126 112 106 97 82 62 51 33 36 30
101 100 91 93 109 100 112 124 124 125 129 149 141 124 130 148 141 92 109 157 210 206 180 167 169 173 167 183 171 143 99 69 47
141 140 131 118 120 114 120 138 132 124 148 140 166 171 157 175 187 175 154 163 185 185 164 176 182 172 172 165 139 137 112 90 85
173 167 158 139 132 118 121 140 145 176 149 153 149 178 208 180 190 185 195 211 169 158 165 182 208 206 163 170 151 150 159 143 129
168 164 160 152 154 155 159 162 162 169 167 167 166 167 174 170 201 194 153 166 148 161 190 211 236 204 166 156 107 147 180 171 144

GFSFLT1_con_3kmhel_072.txt.gz
Helicity
-22 -20 -14 -18 -13 -13 -23 -28 -28 -23 -19 -6 8 -4 1 -10 -16 -10 -2 -3 22 23 25 25 28 31 32 37 40 38 51 57 72
-26 -25 -21 -18 -18 -17 -23 -30 -34 -32 -22 -6 12 11 15 4 2 11 14 18 39 38 36 35 35 37 38 39 42 45 38 36 53
-25 -26 -24 -27 -26 -25 -22 -22 -24 -22 -14 -4 8 33 24 27 32 26 30 49 53 52 48 44 45 45 46 47 49 47 47 40 38
-37 -34 -33 -30 -23 -23 -16 -8 -4 2 3 9 17 24 28 40 39 39 34 49 59 61 57 51 50 48 51 51 53 53 50 44 45
-41 -42 -34 -18 -9 -3 5 13 18 24 25 20 26 29 47 40 49 44 30 47 61 61 58 59 57 53 51 50 51 53 53 50 49
-17 -20 -10 -3 6 12 14 27 36 40 34 34 32 35 44 46 47 42 40 51 54 62 62 61 57 54 49 49 49 51 53 51 53
-3 5 12 15 17 27 34 37 40 45 42 38 34 43 40 52 55 43 51 53 51 50 82 69 67 65 58 54 51 51 50 48 49
27 31 31 34 34 28 30 30 34 31 36 32 37 39 39 49 42 47 48 51 50 50 63 76 71 70 68 62 58 56 53 48 50
48 41 39 38 36 35 33 35 28 23 23 27 35 31 40 43 46 42 50 47 51 52 60 77 71 69 68 59 63 60 52 47 45
65 34 35 28 30 26 27 35 33 23 27 33 38 43 38 39 52 59 57 62 59 62 58 67 69 76 66 68 65 53 45 41 39
60 48 34 26 31 29 33 39 41 34 44 34 44 40 43 49 56 74 75 69 70 67 66 55 48 56 71 89 73 59 51 47 39
76 61 49 31 29 38 39 45 55 56 62 54 55 60 58 64 74 88 100 91 75 81 73 65 45 40 47 58 63 69 78 61 55
84 71 59 47 52 57 60 65 66 60 60 63 62 74 81 81 81 91 103 106 106 91 85 88 77 60 42 32 18 25 44 83 73
101 84 64 61 66 65 72 72 78 76 75 80 79 78 85 83 100 83 91 100 102 104 106 93 87 76 57 36 20 5 4 34 51
94 87 70 73 81 75 83 75 77 75 76 78 87 94 89 85 88 98 116 130 120 101 108 109 110 85 71 65 41 25 22 22 26
87 83 71 75 77 72 79 94 91 91 100 101 103 96 91 98 102 107 81 89 108 145 140 149 143 126 149 124 104 82 75 66 53
98 82 75 74 72 80 94 102 105 101 101 102 88 101 109 126 107 117 105 103 142 178 157 164 170 149 167 175 166 138 91 67 49
104 108 105 104 111 111 116 127 110 93 111 149 138 117 108 111 119 172 162 158 174 171 198 184 183 193 181 176 155 140 119 95 75
170 188 161 136 127 116 124 136 136 152 122 118 155 172 206 152 149 183 154 179 182 184 192 205 217 214 203 194 179 155 157 113 99
172 174 169 164 150 142 143 139 149 169 169 169 157 161 177 187 205 171 170 176 180 182 188 227 249 232 201 184 191 193 119 78 114

GFSFLT1_con_3kmhel_075.txt.gz
Helicity
-3 -6 -15 -23 -24 -20 -20 -24 -30 -25 -15 -8 -2 0 -4 -16 -22 -20 -17 -18 13 17 19 19 19 20 20 18 19 24 31 33 33
-30 -30 -36 -29 -23 -24 -27 -29 -26 -19 -10 -1 14 18 13 2 -1 1 3 9 31 30 30 26 26 26 24 25 26 25 27 28 33
-34 -38 -38 -37 -37 -39 -39 -32 -26 -14 8 24 30 31 31 22 20 19 22 35 40 39 37 32 31 29 29 31 31 29 27 29 28
-43 -44 -46 -45 -41 -40 -41 -36 -26 -11 5 31 41 34 44 39 29 29 24 27 44 46 46 40 34 33 33 31 32 32 33 31 30
-47 -48 -43 -36 -31 -23 -22 -7 -3 9 17 22 40 37 45 40 37 30 25 25 45 48 46 42 41 40 40 37 36 34 31 32 34
-42 -39 -19 -8 -3 1 4 12 14 21 23 20 28 42 30 36 41 34 16 24 35 52 51 48 46 48 48 48 42 39 35 37 35
-25 -16 -3 6 17 21 23 25 31 34 38 31 34 41 35 40 44 38 22 30 35 39 58 53 54 56 54 57 48 44 39 38 34
12 9 12 16 16 29 31 25 32 31 37 32 34 38 45 43 40 33 32 37 36 41 48 61 57 60 59 56 51 50 48 40 36
32 35 32 35 32 27 26 29 24 22 27 33 37 41 49 51 45 38 35 47 44 45 49 57 62 60 59 54 48 55 53 42 35
51 42 44 39 39 35 31 27 24 22 25 32 39 36 38 42 52 57 42 51 50 43 43 56 51 53 57 63 60 56 47 38 32
73 55 44 37 39 40 37 33 26 24 31 27 31 36 42 48 53 70 72 69 64 50 42 45 28 40 60 57 71 58 49 42 38
90 73 56 46 46 41 40 37 43 41 44 34 39 44 46 52 56 80 92 80 63 56 45 49 49 38 37 38 43 49 62 58 55
94 90 71 64 63 60 61 62 58 55 55 52 45 56 64 64 67 69 78 96 102 90 70 75 75 55 39 28 21 15 31 38 59
123 104 79 80 80 67 66 67 71 67 63 58 60 54 60 64 68 55 81 91 112 121 89 73 85 80 63 35 29 25 31 50 37
116 106 93 91 90 72 69 63 70 72 62 58 59 63 63 70 78 78 87 86 88 104 101 97 119 102 92 61 47 30 38 59 66
118 96 100 90 84 69 65 83 68 68 76 80 69 80 66 76 80 87 82 94 82 88 100 134 155 137 129 92 90 91 97 91 88
135 109 92 86 84 65 74 91 99 88 88 83 90 70 72 91 68 89 92 113 127 115 132 137 151 157 164 153 162 143 102 93 74
118 106 95 94 90 81 90 101 97 83 94 105 106 92 88 94 107 123 143 145 138 158 180 192 200 200 168 165 167 149 133 114 89
120 101 108 103 100 90 100 103 105 123 99 117 146 174 195 141 123 129 147 179 155 180 211 221 226 220 199 202 191 170 141 138 119
173 176 146 116 114 106 95 116 100 111 123 144 149 155 170 171 196 146 146 171 185 221 229 234 231 229 222 215 193 176 163 129 117

GFSFLT1_con_3kmhel_078.txt.gz
Helicity
4 -7 -17 -24 -29 -30 -26 -30 -34 -29 -22 -15 -6 -5 -4 -7 -16 -14 -13 -14 17 21 21 20 19 16 14 13 14 9 3 13 14
-25 -28 -30 -31 -32 -36 -37 -32 -29 -23 -19 -4 3 1 5 -5 -2 -3 -5 -0 26 29 27 27 27 27 26 24 21 19 17 15 16
-40 -33 -34 -36 -40 -39 -39 -34 -28 -20 -6 6 14 15 14 7 5 3 4 20 34 37 34 32 32 32 34 34 32 30 25 26 24
-44 -46 -46 -43 -39 -40 -37 -27 -15 3 13 22 22 20 28 18 11 15 8 1 33 36 35 35 33 34 37 39 38 39 37 34 30
-66 -68 -61 -50 -41 -25 -12 -0 9 16 32 28 31 37 36 27 27 20 11 5 27 34 35 35 39 40 43 41 43 42 41 40 40
-60 -57 -42 -28 -16 -7 5 13 24 30 29 31 27 31 23 24 27 25 7 9 16 39 38 38 44 49 49 47 46 40 38 40 45
-43 -37 -14 -7 2 10 20 28 31 36 31 25 30 27 27 29 34 30 12 15 18 30 48 50 53 57 58 51 49 43 41 43 44
-8 -4 7 15 22 29 37 37 40 37 36 34 28 28 29 34 34 26 17 23 25 34 39 57 56 62 61 55 56 43 51 47 41
18 23 27 32 39 42 39 37 31 34 33 32 33 34 36 38 34 30 23 31 36 38 43 36 65 58 51 61 57 57 50 40 34
39 38 44 42 46 41 39 38 35 32 29 30 30 29 31 32 39 47 35 39 43 41 36 38 51 45 55 57 65 59 45 36 33
59 58 50 47 49 43 41 38 36 31 29 25 28 27 35 38 44 56 62 56 58 55 41 41 25 23 41 54 44 66 62 56 49
76 78 63 55 62 52 48 41 40 35 36 30 33 34 35 41 42 49 63 69 69 59 59 56 51 41 27 28 40 43 31 39 56
98 95 79 78 73 71 63 54 48 48 46 44 38 37 38 39 49 57 57 56 74 76 59 72 56 48 48 21 34 37 49 36 19
123 111 101 102 95 85 78 67 66 63 51 44 34 45 47 46 53 44 57 69 76 88 81 67 58 58 42 63 45 39 49 61 44
134 119 107 119 117 96 90 70 64 58 57 51 44 41 40 45 45 50 60 62 67 78 77 84 74 58 87 80 72 59 77 108 83
131 138 123 118 103 89 87 91 69 57 61 58 58 53 40 43 56 52 41 54 68 78 76 91 99 118 140 87 105 103 122 115 101
142 116 106 119 108 92 89 85 87 73 67 68 62 69 61 48 39 76 82 79 75 106 131 140 153 172 177 173 162 141 131 116 100
130 158 141 108 97 103 87 78 77 79 76 75 75 86 64 67 59 56 95 96 99 120 145 174 178 196 197 177 166 158 146 133 121
113 104 149 129 103 91 89 89 92 106 114 97 96 100 117 86 84 80 95 120 143 144 154 177 206 212 209 185 174 177 171 157 136
86 91 108 120 110 112 79 115 118 115 106 101 103 100 122 126 122 113 98 129 137 164 176 199 211 220 211 204 203 208 169 147 138

GFSFLT1_con_3kmhel_081.txt.gz
Helicity
11 1 -7 -13 -16 -10 -15 -24 -26 -21 -17 -13 -10 -9 -5 -9 -6 -5 -0 4 16 21 21 21 20 19 16 14 13 11 8 18 17
3 -12 -18 -22 -18 -14 -22 -21 -16 -21 -13 -5 -3 3 -1 -3 -1 3 6 17 26 30 29 28 28 29 30 30 27 25 23 26 24
-21 -23 -22 -24 -26 -24 -22 -21 -15 -10 -6 3 7 7 3 -1 2 5 6 15 25 29 34 32 32 33 37 41 42 38 34 31 29
-29 -25 -28 -31 -31 -31 -30 -26 -15 -1 10 13 12 14 9 8 5 4 2 -9 21 26 30 31 36 40 42 44 47 45 42 42 38
-33 -35 -33 -34 -32 -28 -22 -9 4 15 21 23 26 24 19 13 9 6 2 -13 14 24 28 34 40 45 46 49 50 48 43 40 40
-41 -35 -31 -24 -8 1 10 18 23 32 36 35 32 24 18 16 13 10 1 -4 7 32 32 35 42 48 54 52 50 47 36 42 44
-35 -25 -14 -5 7 23 27 37 47 40 34 28 27 24 24 22 18 13 -0 4 8 27 43 43 45 54 60 60 60 54 43 48 45
-23 -9 6 14 19 31 37 40 39 41 37 35 28 24 24 25 25 17 8 10 15 24 36 53 46 54 59 53 54 51 53 49 41
13 17 21 27 31 34 39 39 40 39 35 29 29 28 24 25 24 22 16 15 17 20 32 36 44 44 44 50 52 55 56 43 34
28 28 33 36 40 40 41 36 38 35 29 26 21 20 21 20 25 31 29 21 26 28 29 30 44 50 48 45 57 50 48 46 38
40 41 40 41 45 51 50 43 38 30 24 21 19 17 18 18 22 30 37 41 37 38 46 51 39 24 18 47 48 46 45 55 46
49 52 50 50 58 58 63 56 44 34 26 22 25 28 25 23 21 28 39 40 36 24 21 41 51 41 33 15 48 32 22 25 29
60 62 53 68 77 71 73 69 55 46 42 38 37 30 25 20 24 23 32 39 37 45 51 41 38 50 38 23 34 52 49 45 38
62 68 76 84 89 86 84 83 70 62 55 46 37 29 24 20 29 23 33 37 43 52 57 65 55 54 34 24 37 64 73 66 54
68 71 80 94 103 108 104 87 70 73 61 56 45 33 34 33 36 36 34 32 30 39 49 69 79 75 56 68 101 104 103 94 95
56 62 112 116 106 99 98 118 92 77 70 74 63 57 53 46 38 26 30 37 38 42 50 63 75 97 118 135 118 115 98 97 102
51 87 110 141 116 103 116 113 126 96 86 92 90 92 78 61 53 58 41 52 60 70 84 94 98 128 154 171 177 144 119 100 107
99 76 98 128 146 107 105 111 113 116 117 85 101 99 87 71 43 59 61 60 64 83 97 117 139 147 166 166 175 145 133 114 105
122 97 111 123 143 119 111 101 92 100 109 106 107 125 114 87 70 52 77 93 96 97 110 122 147 171 175 181 179 154 146 150 134
107 134 143 135 123 146 160 161 148 135 89 98 120 124 83 91 71 63 85 101 99 97 115 126 141 165 178 172 172 164 161 171 151

GFSFLT1_con_3kmhel_084.txt.gz
Helicity
44 41 24 24 17 6 -4 -12 -9 -7 -5 -8 -4 -2 -15 -32 2 9 8 21 17 16 19 18 19 20 17 17 21 27 23 30 29
34 31 25 8 16 8 2 -1 -2 -2 -1 1 2 1 -19 0 6 11 16 21 18 19 20 21 23 26 28 31 30 36 35 36 30
20 14 7 2 7 2 1 2 0 -2 4 9 10 5 -19 -1 11 9 17 14 18 20 23 24 27 31 35 38 40 38 34 32 32
11 7 2 -3 -5 0 1 4 6 11 11 14 14 9 -12 6 10 7 10 4 17 19 25 31 35 38 42 44 45 39 37 38 39
11 9 -3 -7 -4 -4 -6 2 13 24 27 25 23 17 -2 17 14 13 22 -3 14 20 26 33 40 40 45 49 45 43 40 36 41
0 14 -5 1 -8 -10 -3 16 27 34 36 31 24 5 15 16 15 15 29 1 7 25 27 30 37 41 46 48 45 45 41 42 48
-9 0 -2 1 5 14 17 26 33 10 22 26 18 14 21 22 19 18 20 2 4 17 30 32 38 40 46 49 48 46 45 48 49
-3 -7 -6 -8 2 11 17 24 14 21 23 26 21 24 20 22 24 29 19 7 10 15 29 41 37 43 42 45 49 52 58 58 45
-7 -6 1 14 22 24 27 30 32 31 26 24 21 20 18 20 25 34 28 16 13 18 28 36 43 45 34 36 48 56 54 43 35
13 24 31 35 41 38 39 36 36 32 28 24 19 18 18 19 26 25 48 28 22 19 22 29 37 56 42 42 43 48 53 50 46
45 46 46 46 48 52 53 48 41 38 33 24 23 18 19 19 24 31 40 39 26 16 15 11 27 37 50 50 40 42 41 42 39
48 51 53 55 59 56 61 58 57 51 44 31 31 28 21 21 26 30 28 38 26 13 17 26 20 28 34 13 45 27 34 18 15
54 60 58 61 62 72 73 69 64 59 56 50 45 36 32 23 19 24 21 22 24 31 26 31 36 30 20 7 26 52 46 21 29
53 57 58 66 74 76 83 84 83 81 74 68 57 52 38 22 24 16 21 20 22 22 40 39 39 38 34 24 31 70 79 43 44
53 63 68 76 86 85 87 89 94 96 99 96 82 51 44 40 32 30 32 19 18 18 23 32 51 65 55 49 67 114 113 93 94
48 61 73 84 76 75 75 94 122 131 132 135 87 67 58 54 40 34 33 37 34 42 38 45 61 83 89 108 136 128 147 118 87
70 62 83 82 87 77 95 118 139 141 154 141 148 128 113 99 65 44 36 39 42 56 67 69 76 88 116 167 178 142 118 93 66
34 57 101 91 92 91 97 89 87 118 156 114 157 147 161 154 97 75 51 35 40 65 68 82 89 100 135 144 170 189 156 99 83
50 77 99 79 97 122 131 128 152 132 108 132 130 124 123 119 118 70 36 46 43 60 79 89 99 111 131 168 190 177 158 140 130
93 90 108 107 108 159 167 207 252 235 168 177 134 131 82 90 67 50 2 12 52 77 83 92 108 121 133 140 172 172 156 175 195

GFSFLT1_con_3kmhel_087.txt.gz
Helicity
53 49 50 49 34 33 15 6 4 10 7 5 6 -10 -26 -26 8 11 22 21 18 20 19 16 18 21 21 24 25 27 30 25 22
65 58 67 60 50 28 21 18 15 8 11 16 9 -11 -17 0 7 17 24 20 20 21 20 19 23 30 30 33 34 39 42 43 40
72 67 57 55 37 33 32 18 12 8 12 17 10 -12 -33 7 14 21 25 16 19 23 24 24 24 29 29 33 37 41 44 45 47
46 49 43 37 32 31 21 14 8 8 13 14 10 -9 -26 -16 13 12 24 13 21 24 26 28 29 29 29 36 38 36 38 38 41
47 37 35 30 24 24 20 15 14 17 21 14 8 -3 -20 10 15 15 34 21 25 27 29 29 30 33 34 39 40 41 39 36 44
39 42 51 34 24 14 12 15 23 25 29 23 12 -5 -3 18 17 30 43 20 16 24 26 29 34 37 39 41 40 41 39 44 52
29 47 40 42 24 14 10 20 24 7 21 22 14 3 20 22 24 47 45 20 16 23 28 28 33 34 39 43 43 45 42 52 52
50 33 35 21 6 6 17 23 15 13 20 29 15 19 23 20 28 60 41 22 13 16 25 27 31 33 38 37 41 44 45 43 43
40 31 17 2 11 1 10 22 15 26 22 19 16 25 23 22 30 60 44 25 14 10 12 21 27 38 36 38 36 40 42 41 38
53 30 16 20 23 29 31 34 37 27 22 24 21 22 21 18 36 39 46 33 21 17 10 9 15 20 25 47 46 40 35 32 36
60 45 39 44 51 51 44 35 38 40 36 28 22 23 28 24 28 27 50 43 33 21 16 15 18 16 23 51 30 50 43 43 45
53 59 62 56 53 49 56 57 59 50 45 40 36 32 24 30 23 30 33 51 35 31 20 16 20 20 13 7 11 34 39 28 31
61 65 62 63 63 67 66 64 67 64 59 48 47 52 43 33 29 40 34 35 32 41 39 29 25 18 10 0 2 45 51 33 29
82 82 75 55 74 57 65 71 68 72 79 74 75 72 52 48 37 38 30 33 40 32 34 31 33 36 33 19 12 38 50 53 49
81 84 78 62 73 60 67 63 76 83 83 84 95 97 75 56 61 47 55 50 48 40 46 37 33 47 56 52 42 91 85 88 91
75 81 67 71 80 53 55 68 83 101 118 126 109 138 79 74 70 69 65 62 50 56 59 60 62 78 63 88 96 112 108 133 147
112 97 90 94 78 102 81 86 110 120 119 168 143 123 104 127 105 93 85 76 64 39 54 69 81 85 138 152 154 138 160 154 144
74 72 80 103 164 165 123 106 107 142 148 141 175 178 178 178 115 133 113 76 51 46 75 77 93 107 132 124 155 178 170 145 132
58 78 61 70 85 75 92 111 111 141 154 179 134 191 223 246 176 131 84 51 29 35 62 68 99 103 137 157 198 188 175 150 131
43 63 84 100 57 20 4 106 104 137 262 265 283 305 245 248 199 176 78 30 1 45 46 47 120 108 127 142 193 190 181 174 169

GFSFLT1_con_3kmhel_090.txt.gz
Helicity
56 39 43 96 92 70 53 40 34 22 10 3 -7 -7 -5 -14 6 17 30 9 23 27 27 24 25 26 28 32 35 35 34 34 37
76 65 72 66 63 44 30 26 29 23 17 7 -6 -4 4 -10 17 28 17 8 26 28 26 27 28 29 30 34 38 40 44 42 43
60 70 68 59 54 35 34 32 24 23 18 10 -8 -6 21 16 36 44 18 15 22 26 26 28 29 31 30 34 38 40 44 43 46
49 60 84 75 62 53 40 22 17 17 17 12 1 -9 8 10 10 43 9 17 23 23 25 26 25 26 28 31 33 34 40 35 39
61 71 75 65 63 55 43 21 14 14 14 10 3 -9 -2 10 18 40 21 24 23 23 22 22 25 24 25 28 33 35 34 39 44
79 81 72 73 65 48 36 24 20 19 19 13 3 -11 -6 -8 19 50 42 24 19 20 19 19 21 26 29 33 36 36 36 42 55
99 80 78 76 62 44 30 23 17 14 16 12 4 -3 -1 32 49 48 44 27 16 19 20 18 20 22 27 33 31 34 37 42 47
145 116 104 109 68 46 35 27 15 -0 2 38 19 21 19 37 50 46 48 33 20 16 17 19 18 19 20 26 28 30 34 45 43
120 118 88 79 51 26 21 29 11 5 27 38 26 32 38 29 51 56 51 36 23 15 13 15 16 23 31 29 31 28 31 27 31
110 92 79 51 39 7 26 34 26 28 39 26 34 42 36 19 51 51 42 38 28 17 12 12 10 11 25 38 41 29 34 34 33
94 105 70 43 59 37 56 53 56 48 39 35 45 34 32 38 52 67 56 42 34 28 18 14 12 10 6 2 34 27 46 47 40
135 143 124 89 91 84 70 54 54 64 63 55 41 49 43 48 38 38 68 48 15 34 17 14 15 14 7 -4 -3 18 25 28 38
134 133 112 95 84 73 79 79 79 74 67 81 54 56 56 48 41 49 55 64 58 29 13 23 16 13 13 -1 -3 29 47 43 38
129 106 84 73 79 93 87 87 85 72 72 71 54 64 74 61 56 64 58 43 78 59 16 22 18 14 23 24 32 53 59 72 85
127 121 104 95 96 94 90 80 73 75 68 65 72 101 104 93 76 64 61 108 108 88 76 38 27 14 35 33 52 61 91 136 144
119 126 114 105 101 93 71 80 69 75 77 95 101 107 112 91 75 81 130 112 93 85 80 60 58 48 63 59 86 108 126 157 153
107 104 99 96 98 89 95 87 93 82 103 106 138 143 138 88 143 157 157 150 92 71 73 77 85 96 105 106 143 141 163 163 165
126 126 118 115 134 135 143 146 144 114 112 124 184 194 168 206 204 207 203 144 117 79 92 82 98 113 101 113 150 176 195 157 138
126 97 140 122 119 130 149 136 123 133 131 135 109 165 246 296 312 284 184 166 142 107 89 79 97 114 117 117 145 170 169 166 146
163 85 73 83 104 109 73 81 87 99 82 158 111 315 330 379 422 379 273 201 87 65 83 118 148 136 143 148 150 165 164 169 173

GFSFLT1_con_3kmhel_096.txt.gz
Helicity
80 69 92 120 129 107 84 64 69 45 22 23 33 37 38 29 11 9 11 4 21 24 25 27 27 25 26 35 41 37 38 39 36
103 92 117 111 123 105 77 71 56 33 19 26 37 33 24 9 14 15 8 3 22 24 28 31 30 27 28 31 37 38 38 38 38
104 101 96 91 88 95 78 62 54 31 24 31 49 44 32 16 13 11 8 15 24 27 29 30 30 28 30 33 32 34 31 36 43
102 81 50 74 73 91 80 62 53 39 29 29 43 46 33 15 3 4 -3 10 24 26 25 26 25 28 31 35 35 29 30 38 48
104 94 105 68 85 75 79 65 53 42 30 31 33 50 33 18 13 7 -5 16 22 22 19 19 21 27 30 34 32 32 36 39 39
127 135 110 61 82 99 78 65 55 42 32 28 32 45 37 19 9 10 8 22 23 16 15 18 21 26 29 26 26 29 31 32 30
165 133 96 84 117 102 67 63 58 49 37 30 28 27 32 18 17 14 16 25 24 18 14 15 19 22 22 27 22 23 29 26 22
184 155 129 126 136 142 99 84 69 50 42 33 26 23 24 23 22 11 19 22 19 18 13 13 14 15 20 27 26 19 21 22 24
218 188 166 154 147 128 107 75 56 47 40 36 31 16 23 28 30 10 22 18 20 16 14 12 12 10 10 15 22 19 22 27 26
259 240 179 154 142 122 110 82 63 45 32 27 24 15 10 31 38 34 12 15 14 11 9 11 10 12 6 9 12 18 20 26 31
142 162 144 163 136 106 114 88 68 45 45 29 29 22 19 47 32 45 28 6 14 4 4 1 1 2 2 2 11 25 33 34 46
94 219 101 119 146 104 106 97 85 61 51 38 46 44 31 42 40 51 51 25 16 13 6 -3 -5 -5 -6 -3 -7 11 16 29 57
139 82 111 133 148 137 105 106 88 70 71 55 41 44 48 46 53 53 59 51 47 26 6 16 13 10 4 1 -2 0 19 40 62
177 157 108 116 151 128 97 109 115 98 87 74 64 59 57 49 55 71 67 63 67 70 43 32 34 30 17 12 10 13 20 33 75
206 188 136 123 137 120 131 134 125 123 108 97 85 75 66 60 65 66 80 83 90 77 70 89 85 49 44 55 45 24 20 32 95
191 187 174 159 147 129 135 166 147 120 126 139 103 86 69 61 60 65 102 105 154 146 138 128 117 105 114 107 86 68 62 99 122
160 170 183 182 187 169 165 166 181 148 151 161 159 129 116 86 86 86 136 151 218 176 164 127 116 108 112 118 116 111 80 104 148
98 106 134 165 182 169 162 159 162 155 163 163 178 176 160 137 164 133 121 181 227 220 197 149 141 131 121 110 117 124 142 115 116
86 101 122 107 142 159 162 155 165 198 185 206 179 169 128 156 182 163 190 236 242 264 225 194 198 142 120 96 99 110 114 104 88
111 190 87 125 178 144 151 182 183 199 219 255 261 223 198 205 201 168 202 309 318 272 354 253 307 193 143 111 104 122 112 97 97

GFSFLT1_con_3kmhel_099.txt.gz
Helicity
62 67 89 116 135 128 100 95 81 66 56 55 42 38 30 24 13 11 10 5 22 25 27 26 24 26 29 34 31 33 34 38 33
73 100 125 121 117 104 89 84 72 61 54 54 33 30 26 12 14 13 9 4 24 26 27 27 28 29 29 30 35 37 40 33 33
78 108 134 105 89 91 90 81 68 64 54 51 35 34 23 13 14 8 6 17 27 26 26 28 29 28 27 31 37 36 32 29 34
75 113 117 94 77 70 84 80 68 66 60 52 50 37 33 17 4 5 2 10 28 26 26 26 27 27 29 32 36 33 26 26 27
75 111 93 75 90 82 85 75 67 68 67 54 47 31 38 20 7 6 -1 11 23 27 26 22 22 24 28 33 31 32 29 26 23
99 98 85 138 84 116 94 75 74 73 63 54 49 43 22 19 10 8 -3 17 23 22 22 19 19 19 24 27 30 31 34 29 18
137 133 145 115 79 125 108 89 84 82 77 58 57 45 30 18 14 11 -3 13 23 21 15 14 11 16 18 17 23 25 25 23 24
172 189 162 114 105 152 151 131 115 88 71 50 41 42 32 24 20 16 1 3 16 15 14 10 7 9 12 11 19 19 17 17 19
191 193 167 146 185 174 189 151 111 88 67 53 39 34 29 25 26 22 6 -6 2 12 13 9 7 2 8 10 9 12 13 15 18
211 186 182 166 182 158 171 137 114 93 69 49 39 33 28 23 31 33 9 0 -2 5 9 9 7 2 6 7 6 10 12 16 21
241 214 220 232 179 152 145 129 103 87 80 48 36 24 29 29 33 39 28 7 -1 -1 3 5 5 0 4 4 2 14 19 25 33
178 160 165 201 151 147 146 122 112 97 85 51 44 38 30 42 43 39 38 35 8 4 9 1 3 -1 -3 -3 -8 0 11 10 27
180 151 141 170 170 94 132 121 109 91 82 68 51 53 47 51 55 56 57 57 47 17 2 12 18 12 11 9 6 -1 13 18 35
114 169 177 127 220 228 117 108 137 99 76 72 72 70 68 67 68 59 63 65 57 56 28 32 46 36 38 33 29 27 22 35 40
170 147 141 159 134 109 175 78 131 108 83 93 90 87 83 82 81 76 72 81 78 80 70 68 76 77 72 55 61 56 45 35 56
119 164 172 187 141 164 136 108 100 105 99 146 127 109 98 88 77 77 82 80 81 111 119 121 108 142 130 116 99 91 80 67 95
89 98 122 194 254 156 180 199 158 127 171 175 163 132 142 99 90 96 91 79 96 128 166 174 146 138 134 130 121 116 102 90 110
118 83 150 208 231 229 197 182 204 167 193 217 205 189 163 152 178 132 114 102 145 171 180 200 180 165 142 129 122 123 135 111 104
86 64 106 165 213 195 217 209 193 200 176 254 220 225 197 178 186 209 170 154 186 225 242 237 203 171 165 132 122 123 128 111 97
106 88 198 167 222 185 179 176 159 176 193 247 287 280 278 263 249 190 248 200 200 213 276 292 256 274 185 188 155 111 107 96 106

GFSFLT1_con_3kmhel_102.txt.gz
Helicity
46 46 78 82 85 113 139 108 89 69 53 36 19 29 29 24 15 12 9 1 22 26 25 19 16 19 25 28 28 27 23 22 26
60 78 105 120 127 125 102 98 87 67 63 57 53 39 32 16 12 12 4 -4 25 29 29 25 23 20 21 27 28 25 22 23 29
55 94 116 120 119 106 91 89 81 63 60 52 44 36 31 18 14 9 4 9 25 27 27 24 21 23 25 27 26 25 24 25 31
66 83 119 109 93 96 104 103 72 60 58 45 44 38 31 20 10 9 2 6 25 28 28 25 20 17 23 26 24 24 23 25 26
66 89 102 96 82 83 113 111 89 61 57 57 47 44 38 22 10 4 -1 2 22 25 26 19 20 23 22 24 24 20 21 24 17
98 105 100 83 73 81 98 108 99 91 72 61 55 42 31 26 18 11 -5 5 20 21 21 22 19 23 24 24 23 22 21 19 13
118 111 105 76 80 97 108 100 110 111 106 78 61 48 33 22 17 15 1 5 18 18 16 17 16 17 22 25 23 20 16 17 17
153 152 119 129 123 134 142 147 129 107 101 95 67 45 36 25 19 16 5 2 13 17 13 11 14 13 19 19 19 17 16 13 15
189 174 179 174 168 153 154 175 135 112 86 81 69 50 38 27 20 14 7 5 -3 12 12 9 9 11 13 13 12 10 10 12 18
173 204 210 186 194 183 168 176 142 125 100 72 63 53 38 26 24 24 9 6 -7 -12 4 6 3 7 10 8 12 8 10 9 13
149 189 200 221 187 197 195 167 150 115 113 81 58 49 49 34 28 34 35 9 5 -3 -7 -4 -1 2 4 7 5 14 13 16 20
155 207 224 232 250 199 219 170 170 140 110 82 62 53 43 41 32 39 44 38 17 10 -2 -8 -6 -3 -8 -0 2 6 10 12 21
157 223 244 222 245 230 226 210 190 146 115 67 62 51 52 48 48 50 58 58 53 35 14 5 1 2 2 1 7 21 31 28 31
166 194 235 216 193 220 246 215 135 155 112 66 65 65 61 56 60 60 66 64 69 71 47 28 21 24 28 23 23 27 31 51 55
149 176 209 198 208 170 190 225 242 214 99 66 74 77 74 86 72 68 76 80 85 88 78 78 70 56 61 50 53 42 28 43 66
126 137 182 201 184 103 85 160 252 182 106 80 78 81 86 91 84 88 87 80 83 89 90 106 104 101 83 91 82 66 52 44 56
133 136 153 173 199 162 159 173 199 177 129 152 129 69 92 122 88 120 108 90 105 100 96 115 133 155 176 142 103 79 79 76 84
133 139 153 149 164 175 200 222 213 264 283 171 235 136 110 111 132 150 138 132 133 118 127 145 173 183 185 150 128 102 97 87 88
149 141 161 158 161 143 169 216 199 189 225 209 253 286 205 122 135 163 202 171 158 165 169 177 193 196 195 177 153 140 97 125 98
145 148 91 129 168 121 142 205 221 188 178 224 240 262 243 205 151 130 180 220 176 173 200 226 236 232 221 246 235 158 216 155 131

GFSFLT1_con_3kmhel_105.txt.gz
Helicity
22 27 25 22 68 98 118 112 91 58 36 33 34 35 29 18 15 12 13 11 18 17 17 15 15 17 18 21 25 25 23 26 26
34 34 50 65 88 107 93 92 94 76 43 27 33 36 34 20 17 15 11 12 19 20 21 20 22 22 27 25 24 25 25 25 28
37 62 78 92 117 109 76 77 74 80 71 62 46 41 32 23 22 17 12 14 20 22 22 23 22 24 29 30 30 29 24 21 23
42 47 74 104 114 111 80 71 60 62 63 59 53 38 32 22 18 17 15 10 23 24 22 20 24 27 27 27 30 29 25 25 19
57 57 62 93 101 95 87 83 63 47 57 52 63 53 39 24 19 13 13 3 22 25 24 22 21 24 25 23 28 30 29 26 18
72 70 68 84 84 87 86 86 76 66 58 55 56 61 38 28 19 13 5 -1 16 22 21 20 21 21 23 22 23 26 27 21 17
71 81 102 102 87 84 88 94 101 88 65 61 56 35 39 33 24 16 1 -4 8 17 18 19 16 17 16 20 18 18 19 20 16
77 97 106 94 93 94 83 109 112 91 96 68 56 39 33 35 31 19 3 -6 -1 11 15 13 13 13 12 12 12 10 15 16 15
87 93 109 113 128 123 107 114 112 115 96 78 55 46 38 38 39 29 14 -0 -9 3 12 11 10 11 10 3 4 6 5 8 14
98 126 137 134 141 133 133 127 134 127 94 99 67 48 36 28 37 36 21 7 1 -7 1 9 10 9 7 3 -1 -1 6 7 15
74 93 123 158 192 139 145 129 139 125 129 108 76 57 46 36 29 32 29 16 13 5 -4 -2 4 6 3 2 2 7 7 7 16
48 80 106 140 166 147 145 128 185 158 159 112 90 82 55 42 31 33 34 36 24 19 4 -1 1 3 2 -3 -2 7 9 -2 12
57 67 81 122 164 161 144 193 202 200 181 98 104 93 79 51 36 30 37 43 46 40 22 13 10 6 2 1 4 17 36 27 17
69 81 87 108 152 181 164 202 196 184 201 218 95 96 76 55 49 27 31 37 55 61 45 40 31 22 17 12 17 25 46 47 40
83 81 84 110 135 164 184 194 232 248 194 208 107 86 77 63 57 31 44 42 48 61 58 61 52 37 40 33 26 30 40 41 44
57 78 72 110 107 112 131 143 175 199 213 245 175 153 101 64 45 41 56 46 55 62 75 92 79 81 63 71 55 49 48 42 48
56 70 104 104 112 124 134 139 144 184 175 183 256 265 134 46 50 69 76 51 80 68 78 85 82 79 90 96 98 78 48 51 71
58 61 81 94 134 130 163 175 162 143 156 217 194 298 227 44 53 80 126 104 134 122 103 108 96 89 96 116 112 91 70 49 73
49 65 81 85 137 122 155 213 228 216 189 210 214 213 276 247 178 69 121 129 119 145 156 118 132 129 133 123 163 128 94 69 74
61 69 72 112 140 148 147 158 211 237 222 217 232 190 169 167 182 73 81 107 117 160 162 180 152 157 205 197 176 149 127 128 117

GFSFLT1_con_3kmhel_108.txt.gz
Helicity
2 17 14 20 30 57 85 59 49 47 46 46 34 26 20 -8 10 13 19 18 22 19 23 26 21 19 24 28 28 28 28 27 27
12 17 23 28 57 94 89 59 47 32 27 32 30 33 18 4 17 18 18 33 24 26 24 24 23 24 24 27 26 29 26 28 28
22 25 36 40 67 87 81 62 59 41 15 11 29 26 8 8 22 23 18 42 25 25 25 26 25 24 24 27 25 23 25 25 26
35 43 49 63 70 84 78 56 63 64 51 47 34 26 -3 14 31 23 21 25 27 28 23 21 22 23 23 23 25 23 20 23 24
34 45 50 67 84 85 83 66 65 75 65 54 44 27 9 9 24 24 41 25 23 25 24 22 22 20 22 23 23 23 19 19 20
27 42 63 48 84 87 81 70 75 88 83 60 54 41 15 20 20 23 69 24 21 23 23 23 20 19 19 21 20 17 20 19 19
42 48 71 55 87 82 73 78 90 81 77 69 63 27 30 32 24 24 45 18 20 25 24 23 22 18 17 17 19 17 16 16 16
51 53 67 67 90 78 76 74 73 68 77 82 53 38 36 42 43 39 34 11 7 21 22 20 21 18 14 15 14 17 14 13 12
55 59 59 66 76 74 74 80 61 71 76 75 66 54 53 46 49 51 55 18 4 5 16 16 16 15 14 10 11 12 11 12 12
74 68 71 64 80 77 78 74 75 87 93 81 73 72 60 50 57 49 61 38 17 1 2 14 14 12 11 9 8 8 10 9 12
59 59 71 69 68 102 106 105 111 115 81 67 90 76 78 68 58 54 47 44 30 17 4 -4 12 12 11 9 8 5 6 10 12
34 51 46 48 62 86 156 111 122 91 108 86 78 79 78 79 63 65 55 41 38 40 20 7 4 3 3 7 8 13 12 8 9
29 34 37 40 46 57 83 98 115 104 154 127 106 107 86 92 61 72 69 63 47 43 46 31 20 16 6 1 -3 -0 16 36 30
28 42 59 57 66 70 88 99 114 135 161 203 245 151 93 89 80 67 60 58 56 54 51 61 55 40 27 8 2 2 28 49 41
40 65 60 77 87 71 77 91 139 141 134 180 179 151 189 136 113 87 89 59 47 56 47 67 63 61 40 26 13 8 20 45 42
-8 27 58 76 93 74 95 114 123 164 166 228 234 201 153 127 146 130 110 70 53 41 55 76 82 75 74 56 46 32 24 32 40
96 76 71 63 96 82 80 89 126 129 143 190 141 151 134 125 180 173 181 173 109 36 71 74 92 99 95 86 70 62 41 34 34
95 86 68 49 64 100 77 65 81 124 131 123 180 204 195 119 170 179 213 168 93 85 126 147 121 127 117 103 88 86 72 36 41
83 81 64 56 61 60 69 77 83 125 154 208 184 175 259 185 136 146 120 253 49 13 114 161 132 119 130 121 131 99 128 91 56
85 70 60 64 67 54 60 90 86 148 196 234 257 217 205 186 189 163 163 183 45 90 100 115 146 186 188 190 154 139 174 132 83

GFSFLT1_con_3kmhel_111.txt.gz
Helicity
5 1 6 -2 16 35 68 65 52 32 17 13 4 -3 -5 -20 3 24 22 47 28 24 31 34 28 27 28 28 25 30 24 26 31
10 9 17 15 16 34 72 54 47 41 29 16 9 2 -19 -19 14 27 21 51 29 28 28 29 28 28 27 28 25 25 26 28 32
15 15 21 27 14 36 77 61 45 37 35 28 20 14 -15 -4 11 21 32 55 39 35 29 26 26 26 29 30 27 26 24 29 31
17 16 27 27 36 48 63 67 53 36 24 19 51 27 -7 -6 13 10 31 37 35 38 34 29 25 24 26 28 27 25 23 30 32
27 27 29 36 46 56 61 77 56 52 52 68 63 33 1 -7 35 12 54 47 29 32 31 29 26 25 27 26 26 26 26 28 28
11 23 34 49 41 58 69 72 66 70 80 65 64 47 19 6 28 29 85 50 25 28 29 25 22 24 26 24 25 25 24 29 28
54 52 68 60 55 58 72 64 82 79 65 65 67 45 20 32 34 52 86 66 29 29 26 25 24 21 22 22 21 21 22 24 25
64 72 58 54 63 75 75 80 73 54 63 63 57 45 42 54 51 83 76 58 32 34 31 24 21 19 19 19 20 20 19 20 19
91 77 82 77 77 80 91 103 62 51 49 56 56 58 64 74 79 83 85 59 29 18 33 35 25 19 16 13 16 17 14 12 13
99 76 103 90 88 81 93 93 66 70 69 77 74 75 72 65 82 87 85 79 49 23 12 21 28 24 16 12 12 13 12 9 11
143 122 113 101 96 80 80 85 101 117 96 88 90 77 96 81 83 80 80 70 73 49 26 9 10 20 18 15 9 8 11 9 8
170 157 103 84 81 70 76 89 116 149 172 131 122 109 61 70 83 103 98 80 60 67 43 28 11 8 6 12 19 15 23 18 13
247 217 85 76 70 70 74 81 130 118 134 106 111 163 136 101 106 101 94 100 92 76 61 62 39 21 9 5 7 14 23 25 20
188 212 106 53 56 51 67 71 83 99 104 142 116 133 167 156 140 117 106 102 122 113 80 70 68 64 41 16 8 4 20 28 41
124 126 97 58 39 45 67 56 79 93 106 132 142 153 167 161 197 144 94 90 120 117 99 113 99 74 70 49 24 9 12 35 44
105 119 108 159 89 69 54 64 69 101 112 129 123 117 129 123 157 119 149 174 152 126 94 116 113 97 68 77 66 40 17 25 40
94 87 63 84 82 45 59 88 82 81 122 149 145 149 137 160 161 187 178 131 164 170 138 141 126 127 134 137 98 86 46 29 25
122 76 65 60 59 73 52 86 73 72 85 131 159 159 157 141 123 144 175 193 199 160 148 166 169 163 146 164 166 116 96 73 31
140 113 101 83 92 92 71 73 74 74 87 121 136 119 185 177 141 143 128 106 154 157 161 170 174 159 92 182 170 156 129 93 46
149 127 91 92 95 83 79 75 86 104 114 115 165 159 142 178 246 193 156 171 154 178 157 209 162 16 71 153 165 207 171 99 74

GFSFLT1_con_3kmhel_114.txt.gz
Helicity
20 11 12 3 8 15 41 58 53 38 23 14 11 5 -7 -10 45 35 53 67 34 35 41 35 31 27 28 28 30 29 32 32 30
12 14 16 13 9 13 37 52 44 40 25 7 4 11 -4 2 24 27 36 33 35 35 36 34 32 33 32 33 35 32 31 33 32
14 15 13 17 12 12 33 59 47 36 31 14 9 2 -4 9 9 39 58 35 26 31 33 34 34 33 36 35 33 34 35 32 30
32 24 24 17 15 20 42 67 60 43 32 26 26 12 -6 -5 17 55 58 53 32 30 29 29 32 32 33 35 36 35 32 30 27
47 40 32 35 32 36 48 54 67 53 36 25 53 23 3 -2 27 33 80 68 47 40 34 31 30 32 35 34 35 35 35 34 30
56 62 52 48 48 48 55 60 75 71 64 64 50 36 28 12 28 64 75 55 52 48 42 36 33 34 33 32 32 35 31 32 29
63 88 89 70 66 50 51 72 88 90 93 84 63 63 31 21 36 92 86 64 50 42 38 37 37 37 35 32 30 31 29 30 28
85 118 107 108 87 107 85 101 125 107 78 102 108 81 47 41 67 108 93 74 57 43 38 33 30 32 35 32 29 27 25 25 24
131 130 128 141 149 134 134 142 117 92 73 63 124 102 76 80 98 130 105 84 61 45 46 39 30 27 27 25 22 20 19 22 23
155 138 138 159 169 150 155 140 109 95 90 77 70 114 107 91 109 143 106 90 84 57 37 42 39 30 24 22 20 15 13 12 15
184 137 122 149 151 141 146 145 121 91 86 104 79 133 129 123 114 144 125 89 81 82 60 42 39 40 29 21 20 19 13 8 10
189 159 162 126 141 143 164 141 124 132 156 187 191 133 106 137 167 140 154 140 95 89 65 56 45 34 31 32 24 28 28 25 19
225 205 190 177 159 187 195 122 125 125 150 178 126 177 127 144 156 185 131 181 158 110 93 83 63 45 38 30 24 33 30 31 24
224 228 208 213 256 231 180 100 107 116 142 125 140 123 98 70 131 135 124 140 162 157 91 88 90 83 60 38 33 24 44 49 46
206 228 210 238 265 143 205 99 81 75 88 85 106 125 116 125 135 122 111 163 168 168 186 148 122 95 84 63 48 36 36 54 52
178 177 188 224 170 143 108 115 80 62 68 99 92 91 108 95 142 140 144 165 149 141 137 180 227 159 87 79 72 62 48 53 63
186 191 176 156 161 125 117 198 299 123 77 80 101 85 68 123 126 130 139 123 159 157 193 231 227 166 174 144 85 67 65 59 61
230 190 155 138 125 119 94 108 106 113 101 99 108 98 91 89 106 97 121 143 183 189 178 209 257 183 157 179 164 124 84 87 68
207 122 185 94 110 85 93 81 83 97 75 107 126 111 159 109 115 85 77 121 154 128 145 147 149 151 168 204 236 170 130 83 78
575 396 332 186 155 127 119 99 90 90 95 123 126 113 148 154 145 74 108 149 153 133 123 144 146 131 191 223 243 173 150 90 84

GFSFLT1_con_3kmhel_117.txt.gz
Helicity
21 23 14 7 6 9 37 45 50 41 26 17 4 -9 -6 28 58 18 39 19 26 31 35 31 31 31 32 35 36 38 38 36 33
31 33 21 14 11 5 30 52 46 40 35 16 8 -4 -8 13 31 27 50 28 39 32 28 28 29 33 34 37 35 34 35 37 38
43 39 38 32 20 9 15 45 52 43 34 25 18 12 1 15 35 20 59 46 44 40 39 33 31 34 37 39 36 37 36 35 36
44 45 41 38 39 30 35 45 63 51 38 30 34 25 15 21 36 21 52 42 46 47 40 36 37 39 40 37 37 36 36 36 36
45 46 44 46 43 43 52 61 66 65 53 41 36 28 22 22 26 36 52 46 42 39 38 38 37 38 39 39 38 36 34 37 36
57 56 56 54 61 59 58 67 74 83 63 46 46 42 45 33 39 49 67 57 50 46 39 35 33 35 37 36 34 33 32 32 32
70 63 61 75 71 73 75 77 89 101 105 90 70 75 55 48 47 46 84 73 59 58 49 41 37 36 35 33 31 30 28 28 28
104 104 104 132 89 118 102 102 134 132 118 105 100 81 72 56 60 61 85 76 62 60 52 44 41 42 41 35 30 26 25 25 27
116 131 135 152 156 139 146 164 166 145 117 113 100 91 92 75 75 93 97 92 65 57 65 55 49 42 40 34 29 27 23 23 23
119 131 168 167 186 174 174 176 176 152 129 113 113 98 93 88 107 143 93 111 90 70 55 50 45 43 44 40 35 30 23 18 18
164 214 203 181 184 195 173 171 160 153 156 122 106 112 101 90 106 165 145 116 92 85 71 53 45 40 40 42 42 36 29 22 19
182 183 183 168 164 167 188 171 181 176 163 149 123 118 134 121 100 154 191 150 107 99 78 70 55 51 46 40 40 46 47 37 25
146 181 171 173 187 207 188 183 187 186 196 218 183 171 153 134 136 197 156 161 165 116 79 73 73 66 50 41 43 56 64 58 47
165 184 197 202 235 239 213 226 219 188 177 151 106 145 258 96 78 150 124 105 175 187 114 95 87 85 80 54 44 46 59 74 64
152 195 188 213 243 256 260 232 200 200 151 118 124 107 97 90 75 37 31 90 125 141 160 158 122 98 95 82 62 61 54 71 81
164 174 220 242 250 235 213 230 208 141 131 167 100 121 115 103 109 121 83 57 62 105 160 177 199 156 102 96 85 69 65 59 78
127 168 185 205 217 223 219 218 200 133 145 142 129 57 89 117 97 105 124 125 119 129 130 161 198 200 184 151 106 84 61 60 51
61 113 192 219 211 197 190 182 161 148 132 106 140 152 123 139 157 78 94 110 140 130 132 125 148 153 169 187 137 115 69 81 66
51 49 84 207 239 250 189 161 160 138 132 125 133 151 152 106 103 126 89 73 81 99 126 125 130 158 200 195 171 125 77 94 73
38 88 -23 117 211 136 171 159 156 129 119 88 93 90 101 97 127 134 132 108 92 90 100 107 128 119 132 167 191 180 96 100 106

GFSFLT1_con_3kmhel_120.txt.gz
Helicity
26 27 28 23 19 24 34 41 47 38 30 22 18 15 22 27 27 36 41 22 36 36 31 29 28 29 31 33 31 34 33 31 32
26 31 29 26 22 28 36 41 44 41 34 20 13 13 31 55 39 29 32 24 37 40 36 29 26 29 30 30 31 30 33 33 34
38 39 37 32 27 25 27 47 44 46 41 31 14 14 28 50 42 43 22 29 36 37 36 32 30 29 31 33 33 33 32 33 34
40 42 38 35 32 35 37 51 58 55 51 47 35 26 30 54 42 41 33 46 44 46 40 32 29 29 31 31 30 32 31 30 31
51 50 44 41 41 39 50 50 63 71 63 59 61 41 36 53 54 40 40 30 48 55 46 39 32 30 30 31 29 30 31 30 30
69 67 57 51 49 54 54 60 62 85 87 72 66 55 63 64 69 53 33 30 44 52 53 47 40 37 34 30 27 26 27 28 30
80 75 65 64 60 67 71 75 87 111 128 107 74 90 73 75 74 73 32 38 47 50 51 51 45 41 39 36 31 26 23 22 23
98 102 99 106 89 113 103 116 130 151 150 136 128 103 98 87 84 74 55 39 51 56 55 50 47 44 39 35 31 28 26 22 22
107 113 111 125 129 136 132 155 167 167 160 150 126 120 111 100 94 89 55 60 41 59 56 55 48 39 35 28 29 32 29 25 25
117 111 100 131 142 146 168 171 191 182 174 158 145 124 112 99 107 117 85 75 51 76 59 52 48 45 34 27 26 28 31 29 27
89 105 122 127 180 180 201 199 186 173 184 167 150 125 132 121 111 129 118 92 84 70 78 63 54 42 34 26 24 27 25 28 27
94 91 125 158 175 186 194 190 187 175 193 164 161 148 134 133 129 148 140 119 105 81 78 71 69 60 35 24 22 31 32 30 33
146 122 112 125 150 167 177 172 168 159 167 154 171 172 175 157 159 158 140 136 147 97 84 75 66 64 52 33 20 42 61 65 52
146 131 130 84 135 168 190 186 194 177 163 162 168 197 202 218 299 255 228 182 132 153 108 78 79 77 68 46 37 27 49 78 79
113 100 85 126 126 162 210 197 203 214 216 197 197 161 165 170 93 190 105 133 192 124 100 126 112 80 79 74 54 47 43 47 58
97 101 81 117 143 158 180 242 238 223 232 240 160 165 134 105 32 132 107 98 74 53 105 121 150 128 80 84 79 66 57 60 62
73 50 51 106 136 175 190 231 251 234 239 202 180 152 139 124 114 110 145 125 108 83 106 146 144 144 159 151 104 85 69 61 63
70 65 35 52 130 138 172 207 274 263 235 207 193 154 126 97 107 130 153 101 152 189 125 109 123 134 147 156 133 119 111 103 82
128 111 73 68 46 90 158 169 175 232 212 247 194 222 175 132 94 97 88 115 136 118 119 104 100 121 138 134 141 122 97 79 70
128 171 134 114 61 98 41 200 154 197 239 262 269 169 147 127 98 88 97 107 125 137 123 79 72 80 107 127 129 122 133 85 63